Time,TemperatureF,DewpointF,PressureIn,WindDirection,WindDirectionDegrees,WindSpeedMPH,WindSpeedGustMPH,Humidity,HourlyPrecipIn,Conditions,Clouds,dailyrainin,SolarRadiationWatts/m^2,SoftwareType,DateUTC
2013-02-26 00:04:00,41.7,33.7,30.31,SSW,194,0.0,-999.0,73,0.00,,,0.00,0,Wunderground v.1.15,2013-02-26 08:04:00,
2013-02-26 00:05:00,41.7,33.7,30.31,SSW,194,0.0,-999.0,73,0.00,,,0.00,0,Wunderground v.1.15,2013-02-26 08:05:00,
2013-02-26 00:07:00,41.7,33.7,30.31,SSW,194,0.0,-999.0,73,0.00,,,0.00,0,Wunderground v.1.15,2013-02-26 08:07:00,
2013-02-26 00:08:00,41.5,33.8,30.31,SSW,194,0.0,-999.0,74,0.00,,,0.00,0,Wunderground v.1.15,2013-02-26 08:08:00,
2013-02-26 00:13:00,41.4,33.7,30.31,South,187,0.0,-999.0,74,0.00,,,0.00,0,Wunderground v.1.15,2013-02-26 08:13:00,
2013-02-26 00:15:00,41.4,34.1,30.31,South,187,0.0,-999.0,75,0.00,,,0.00,0,Wunderground v.1.15,2013-02-26 08:15:00,
2013-02-26 00:16:00,41.4,34.1,30.31,South,187,0.0,-999.0,75,0.00,,,0.00,0,Wunderground v.1.15,2013-02-26 08:16:00,
2013-02-26 00:18:00,41.2,34.2,30.31,South,186,0.0,-999.0,76,0.00,,,0.00,0,Wunderground v.1.15,2013-02-26 08:18:00,
2013-02-26 00:21:00,41.2,34.5,30.31,South,187,0.0,-999.0,77,0.00,,,0.00,0,Wunderground v.1.15,2013-02-26 08:21:00,
2013-02-26 00:22:00,41.1,34.4,30.31,South,187,0.0,-999.0,77,0.00,,,0.00,0,Wunderground v.1.15,2013-02-26 08:22:00,
2013-02-26 00:23:00,41.1,34.4,30.31,South,187,0.0,-999.0,77,0.00,,,0.00,0,Wunderground v.1.15,2013-02-26 08:23:00,
2013-02-26 00:24:00,41.1,34.4,30.31,South,187,0.0,-999.0,77,0.00,,,0.00,0,Wunderground v.1.15,2013-02-26 08:24:00,
2013-02-26 00:28:00,40.9,34.6,30.31,South,187,0.0,-999.0,78,0.00,,,0.00,0,Wunderground v.1.15,2013-02-26 08:28:00,
2013-02-26 00:29:00,40.9,34.6,30.31,South,187,0.0,-999.0,78,0.00,,,0.00,0,Wunderground v.1.15,2013-02-26 08:29:00,
2013-02-26 00:31:00,40.8,34.5,30.31,SSE,159,0.0,-999.0,78,0.00,,,0.00,0,Wunderground v.1.15,2013-02-26 08:31:00,
2013-02-26 00:34:00,40.7,34.7,30.31,SSE,159,0.0,-999.0,79,0.00,,,0.00,0,Wunderground v.1.15,2013-02-26 08:34:00,
2013-02-26 00:35:00,40.7,34.7,30.31,SSE,159,0.0,-999.0,79,0.00,,,0.00,0,Wunderground v.1.15,2013-02-26 08:35:00,
2013-02-26 00:37:00,40.5,34.8,30.31,SSE,159,0.0,-999.0,80,0.00,,,0.00,0,Wunderground v.1.15,2013-02-26 08:37:00,
2013-02-26 00:38:00,40.5,34.8,30.31,SSE,159,0.0,-999.0,80,0.00,,,0.00,0,Wunderground v.1.15,2013-02-26 08:38:00,
2013-02-26 00:39:00,40.5,34.8,30.31,SSE,159,0.0,-999.0,80,0.00,,,0.00,0,Wunderground v.1.15,2013-02-26 08:39:00,
2013-02-26 00:42:00,40.4,35.0,30.31,SSE,159,0.0,-999.0,81,0.00,,,0.00,0,Wunderground v.1.15,2013-02-26 08:42:00,
2013-02-26 00:48:00,40.1,35.0,30.31,SSE,159,0.0,-999.0,82,0.00,,,0.00,0,Wunderground v.1.15,2013-02-26 08:48:00,
2013-02-26 00:49:00,40.1,35.0,30.31,SSE,159,0.0,-999.0,82,0.00,,,0.00,0,Wunderground v.1.15,2013-02-26 08:49:00,
2013-02-26 00:51:00,39.9,34.9,30.31,SSE,159,0.0,-999.0,82,0.00,,,0.00,0,Wunderground v.1.15,2013-02-26 08:51:00,
2013-02-26 00:54:00,39.8,34.8,30.31,SSE,159,0.0,-999.0,82,0.00,,,0.00,0,Wunderground v.1.15,2013-02-26 08:54:00,
2013-02-26 00:56:00,39.8,34.8,30.31,SSE,159,0.0,-999.0,82,0.00,,,0.00,0,Wunderground v.1.15,2013-02-26 08:56:00,
2013-02-26 00:58:00,39.7,34.7,30.31,SSE,159,0.0,-999.0,82,0.00,,,0.00,0,Wunderground v.1.15,2013-02-26 08:58:00,
2013-02-26 01:02:00,39.5,34.8,30.31,SE,141,0.0,-999.0,83,0.00,,,0.00,0,Wunderground v.1.15,2013-02-26 09:02:00,
2013-02-26 01:06:00,39.4,34.7,30.31,SE,143,0.0,-999.0,83,0.00,,,0.00,0,Wunderground v.1.15,2013-02-26 09:06:00,
2013-02-26 01:08:00,39.4,35.0,30.31,SE,143,0.0,-999.0,84,0.00,,,0.00,0,Wunderground v.1.15,2013-02-26 09:08:00,
2013-02-26 01:09:00,39.4,35.0,30.31,SE,145,0.0,-999.0,84,0.00,,,0.00,0,Wunderground v.1.15,2013-02-26 09:09:00,
2013-02-26 01:11:00,39.2,34.8,30.31,SE,145,0.0,-999.0,84,0.00,,,0.00,0,Wunderground v.1.15,2013-02-26 09:11:00,
2013-02-26 01:14:00,39.2,34.8,30.31,SE,145,0.0,-999.0,84,0.00,,,0.00,0,Wunderground v.1.15,2013-02-26 09:14:00,
2013-02-26 01:15:00,39.1,34.7,30.31,SE,145,0.0,-999.0,84,0.00,,,0.00,0,Wunderground v.1.15,2013-02-26 09:15:00,
2013-02-26 01:17:00,39.1,34.7,30.32,SE,145,0.0,-999.0,84,0.00,,,0.00,0,Wunderground v.1.15,2013-02-26 09:17:00,
2013-02-26 01:18:00,39.1,34.7,30.32,SE,145,0.0,-999.0,84,0.00,,,0.00,0,Wunderground v.1.15,2013-02-26 09:18:00,
2013-02-26 01:22:00,38.9,34.8,30.32,SE,145,0.0,-999.0,85,0.00,,,0.00,0,Wunderground v.1.15,2013-02-26 09:22:00,
2013-02-26 01:23:00,38.9,34.8,30.32,SE,146,0.0,-999.0,85,0.00,,,0.00,0,Wunderground v.1.15,2013-02-26 09:23:00,
2013-02-26 01:24:00,38.8,34.7,30.32,SE,146,0.0,-999.0,85,0.00,,,0.00,0,Wunderground v.1.15,2013-02-26 09:24:00,
2013-02-26 01:27:00,38.8,34.7,30.32,SE,146,0.0,-999.0,85,0.00,,,0.00,0,Wunderground v.1.15,2013-02-26 09:27:00,
2013-02-26 01:30:00,38.6,34.5,30.32,SE,146,0.0,-999.0,85,0.00,,,0.00,0,Wunderground v.1.15,2013-02-26 09:30:00,
2013-02-26 01:33:00,38.6,34.8,30.32,SW,229,0.0,-999.0,86,0.00,,,0.00,0,Wunderground v.1.15,2013-02-26 09:33:00,
2013-02-26 01:35:00,38.6,34.8,30.32,WNW,283,0.0,-999.0,86,0.00,,,0.00,0,Wunderground v.1.15,2013-02-26 09:35:00,
2013-02-26 01:37:00,38.6,34.8,30.32,WNW,283,0.0,-999.0,86,0.00,,,0.00,0,Wunderground v.1.15,2013-02-26 09:37:00,
2013-02-26 01:39:00,38.5,34.7,30.32,WNW,283,0.0,-999.0,86,0.00,,,0.00,0,Wunderground v.1.15,2013-02-26 09:39:00,
2013-02-26 01:40:00,38.5,35.0,30.32,WNW,283,0.0,-999.0,87,0.00,,,0.00,0,Wunderground v.1.15,2013-02-26 09:40:00,
2013-02-26 01:44:00,38.4,34.9,30.32,WNW,283,0.0,-999.0,87,0.00,,,0.00,0,Wunderground v.1.15,2013-02-26 09:44:00,
2013-02-26 01:45:00,38.4,34.9,30.32,WNW,283,0.0,-999.0,87,0.00,,,0.00,0,Wunderground v.1.15,2013-02-26 09:45:00,
2013-02-26 01:48:00,38.4,34.9,30.33,WNW,283,0.0,-999.0,87,0.00,,,0.00,0,Wunderground v.1.15,2013-02-26 09:48:00,
2013-02-26 01:49:00,38.4,34.9,30.33,WNW,283,0.0,-999.0,87,0.00,,,0.00,0,Wunderground v.1.15,2013-02-26 09:49:00,
2013-02-26 01:50:00,38.4,35.2,30.33,WNW,283,0.0,-999.0,88,0.00,,,0.00,0,Wunderground v.1.15,2013-02-26 09:50:00,
2013-02-26 01:52:00,38.4,35.2,30.33,WNW,283,0.0,-999.0,88,0.00,,,0.00,0,Wunderground v.1.15,2013-02-26 09:52:00,
2013-02-26 01:56:00,38.4,35.2,30.33,SE,124,0.0,-999.0,88,0.00,,,0.00,0,Wunderground v.1.15,2013-02-26 09:56:00,
2013-02-26 01:57:00,38.4,35.2,30.33,SE,124,0.0,-999.0,88,0.00,,,0.00,0,Wunderground v.1.15,2013-02-26 09:57:00,
2013-02-26 02:00:00,38.4,35.2,30.33,SE,124,0.0,-999.0,88,0.00,,,0.00,0,Wunderground v.1.15,2013-02-26 10:00:00,
2013-02-26 02:01:00,38.2,35.0,30.33,SE,124,0.0,-999.0,88,0.00,,,0.00,0,Wunderground v.1.15,2013-02-26 10:01:00,
2013-02-26 02:02:00,38.2,35.0,30.33,SE,124,0.0,-999.0,88,0.00,,,0.00,0,Wunderground v.1.15,2013-02-26 10:02:00,
2013-02-26 02:05:00,38.2,35.0,30.33,SE,124,0.0,-999.0,88,0.00,,,0.00,0,Wunderground v.1.15,2013-02-26 10:05:00,
2013-02-26 02:06:00,38.2,35.0,30.33,SE,124,0.0,-999.0,88,0.00,,,0.00,0,Wunderground v.1.15,2013-02-26 10:06:00,
2013-02-26 02:07:00,38.1,34.9,30.33,SE,124,0.0,-999.0,88,0.00,,,0.00,0,Wunderground v.1.15,2013-02-26 10:07:00,
2013-02-26 02:10:00,38.1,34.9,30.33,SE,124,0.0,-999.0,88,0.00,,,0.00,0,Wunderground v.1.15,2013-02-26 10:10:00,
2013-02-26 02:11:00,38.1,34.9,30.33,SE,124,0.0,-999.0,88,0.00,,,0.00,0,Wunderground v.1.15,2013-02-26 10:11:00,
2013-02-26 02:12:00,37.9,34.7,30.33,SE,124,0.0,-999.0,88,0.00,,,0.00,0,Wunderground v.1.15,2013-02-26 10:12:00,
2013-02-26 02:15:00,37.8,34.6,30.33,SE,124,0.0,-999.0,88,0.00,,,0.00,0,Wunderground v.1.15,2013-02-26 10:15:00,
2013-02-26 02:16:00,37.8,34.6,30.33,SE,124,0.0,-999.0,88,0.00,,,0.00,0,Wunderground v.1.15,2013-02-26 10:16:00,
2013-02-26 02:18:00,37.8,34.6,30.33,SE,124,0.0,-999.0,88,0.00,,,0.00,0,Wunderground v.1.15,2013-02-26 10:18:00,
2013-02-26 02:21:00,37.6,34.4,30.33,SE,124,0.0,-999.0,88,0.00,,,0.00,0,Wunderground v.1.15,2013-02-26 10:21:00,
2013-02-26 02:23:00,37.5,34.3,30.33,SE,124,0.0,-999.0,88,0.00,,,0.00,0,Wunderground v.1.15,2013-02-26 10:23:00,
2013-02-26 02:26:00,37.5,34.6,30.33,SE,124,0.0,-999.0,89,0.00,,,0.00,0,Wunderground v.1.15,2013-02-26 10:26:00,
2013-02-26 02:29:00,37.4,34.5,30.33,SE,124,0.0,-999.0,89,0.00,,,0.00,0,Wunderground v.1.15,2013-02-26 10:29:00,
2013-02-26 02:31:00,37.4,34.5,30.33,SE,124,0.0,-999.0,89,0.00,,,0.00,0,Wunderground v.1.15,2013-02-26 10:31:00,
2013-02-26 02:32:00,37.2,34.3,30.33,SE,124,0.0,-999.0,89,0.00,,,0.00,0,Wunderground v.1.15,2013-02-26 10:32:00,
2013-02-26 02:34:00,37.2,34.3,30.33,SE,124,0.0,-999.0,89,0.00,,,0.00,0,Wunderground v.1.15,2013-02-26 10:34:00,
2013-02-26 02:36:00,37.2,34.3,30.33,SE,124,0.0,-999.0,89,0.00,,,0.00,0,Wunderground v.1.15,2013-02-26 10:36:00,
2013-02-26 02:37:00,37.2,34.3,30.33,SE,124,0.0,-999.0,89,0.00,,,0.00,0,Wunderground v.1.15,2013-02-26 10:37:00,
2013-02-26 02:39:00,37.1,34.2,30.33,SE,124,0.0,-999.0,89,0.00,,,0.00,0,Wunderground v.1.15,2013-02-26 10:39:00,
2013-02-26 02:41:00,37.1,34.4,30.33,SE,124,0.0,-999.0,90,0.00,,,0.00,0,Wunderground v.1.15,2013-02-26 10:41:00,
2013-02-26 02:42:00,37.1,34.4,30.33,SE,124,0.0,-999.0,90,0.00,,,0.00,0,Wunderground v.1.15,2013-02-26 10:42:00,
2013-02-26 02:44:00,36.9,34.2,30.33,SE,124,0.0,-999.0,90,0.00,,,0.00,0,Wunderground v.1.15,2013-02-26 10:44:00,
2013-02-26 02:46:00,36.9,34.2,30.33,SE,124,0.0,-999.0,90,0.00,,,0.00,0,Wunderground v.1.15,2013-02-26 10:46:00,
2013-02-26 02:47:00,36.9,34.2,30.33,SE,124,0.0,-999.0,90,0.00,,,0.00,0,Wunderground v.1.15,2013-02-26 10:47:00,
2013-02-26 02:49:00,36.9,34.2,30.33,SE,124,0.0,-999.0,90,0.00,,,0.00,0,Wunderground v.1.15,2013-02-26 10:49:00,
2013-02-26 02:51:00,36.9,34.2,30.33,SE,124,0.0,-999.0,90,0.00,,,0.00,0,Wunderground v.1.15,2013-02-26 10:51:00,
2013-02-26 02:52:00,36.9,34.2,30.33,SE,124,1.0,-999.0,90,0.00,,,0.00,0,Wunderground v.1.15,2013-02-26 10:52:00,
2013-02-26 02:53:00,36.8,34.1,30.33,SE,124,0.0,-999.0,90,0.00,,,0.00,0,Wunderground v.1.15,2013-02-26 10:53:00,
2013-02-26 02:55:00,36.8,34.1,30.33,SE,124,0.0,-999.0,90,0.00,,,0.00,0,Wunderground v.1.15,2013-02-26 10:55:00,
2013-02-26 02:57:00,36.9,34.5,30.33,SE,124,0.0,-999.0,91,0.00,,,0.00,0,Wunderground v.1.15,2013-02-26 10:57:00,
2013-02-26 02:58:00,36.9,34.5,30.33,SE,124,0.0,-999.0,91,0.00,,,0.00,0,Wunderground v.1.15,2013-02-26 10:58:00,
2013-02-26 03:00:00,36.9,34.5,30.33,SE,124,0.0,-999.0,91,0.00,,,0.00,0,Wunderground v.1.15,2013-02-26 11:00:00,
2013-02-26 03:02:00,37.1,34.7,30.33,SE,124,0.0,-999.0,91,0.00,,,0.00,0,Wunderground v.1.15,2013-02-26 11:02:00,
2013-02-26 03:04:00,37.1,34.7,30.33,SE,124,0.0,-999.0,91,0.00,,,0.00,0,Wunderground v.1.15,2013-02-26 11:04:00,
2013-02-26 03:05:00,37.1,34.7,30.33,SE,124,0.0,-999.0,91,0.00,,,0.00,0,Wunderground v.1.15,2013-02-26 11:05:00,
2013-02-26 03:07:00,37.1,34.7,30.33,SE,124,0.0,-999.0,91,0.00,,,0.00,0,Wunderground v.1.15,2013-02-26 11:07:00,
2013-02-26 03:08:00,37.1,34.7,30.33,SE,124,0.0,-999.0,91,0.00,,,0.00,0,Wunderground v.1.15,2013-02-26 11:08:00,
2013-02-26 03:09:00,36.9,34.5,30.33,SE,124,0.0,-999.0,91,0.00,,,0.00,0,Wunderground v.1.15,2013-02-26 11:09:00,
2013-02-26 03:11:00,36.9,34.5,30.33,SE,124,0.0,-999.0,91,0.00,,,0.00,0,Wunderground v.1.15,2013-02-26 11:11:00,
2013-02-26 03:13:00,36.9,34.5,30.33,SE,124,0.0,-999.0,91,0.00,,,0.00,0,Wunderground v.1.15,2013-02-26 11:13:00,
2013-02-26 03:14:00,36.9,34.5,30.33,SE,124,0.0,-999.0,91,0.00,,,0.00,0,Wunderground v.1.15,2013-02-26 11:14:00,
2013-02-26 03:16:00,36.9,34.5,30.33,SE,124,0.0,-999.0,91,0.00,,,0.00,0,Wunderground v.1.15,2013-02-26 11:16:00,
2013-02-26 03:18:00,36.8,34.4,30.33,SE,124,0.0,-999.0,91,0.00,,,0.00,0,Wunderground v.1.15,2013-02-26 11:18:00,
2013-02-26 03:19:00,36.8,34.4,30.33,SE,124,0.0,-999.0,91,0.00,,,0.00,0,Wunderground v.1.15,2013-02-26 11:19:00,
2013-02-26 03:21:00,36.8,34.4,30.33,SE,124,0.0,-999.0,91,0.00,,,0.00,0,Wunderground v.1.15,2013-02-26 11:21:00,
2013-02-26 03:23:00,36.8,34.4,30.33,SE,124,0.0,-999.0,91,0.00,,,0.00,0,Wunderground v.1.15,2013-02-26 11:23:00,
2013-02-26 03:24:00,36.6,34.2,30.33,SE,124,0.0,-999.0,91,0.00,,,0.00,0,Wunderground v.1.15,2013-02-26 11:24:00,
2013-02-26 03:26:00,36.6,34.2,30.33,SE,124,0.0,-999.0,91,0.00,,,0.00,0,Wunderground v.1.15,2013-02-26 11:26:00,
2013-02-26 03:28:00,36.6,34.2,30.33,SE,124,0.0,-999.0,91,0.00,,,0.00,0,Wunderground v.1.15,2013-02-26 11:28:00,
2013-02-26 03:29:00,36.6,34.2,30.33,SE,124,0.0,-999.0,91,0.00,,,0.00,0,Wunderground v.1.15,2013-02-26 11:29:00,
2013-02-26 03:30:00,36.6,34.2,30.33,SE,124,0.0,-999.0,91,0.00,,,0.00,0,Wunderground v.1.15,2013-02-26 11:30:00,
2013-02-26 03:31:00,36.6,34.2,30.33,SE,124,0.0,-999.0,91,0.00,,,0.00,0,Wunderground v.1.15,2013-02-26 11:31:00,
2013-02-26 03:33:00,36.5,34.1,30.33,SE,124,0.0,-999.0,91,0.00,,,0.00,0,Wunderground v.1.15,2013-02-26 11:33:00,
2013-02-26 03:34:00,36.5,34.1,30.33,SE,124,0.0,-999.0,91,0.00,,,0.00,0,Wunderground v.1.15,2013-02-26 11:34:00,
2013-02-26 03:35:00,36.5,34.1,30.33,SE,124,0.0,-999.0,91,0.00,,,0.00,0,Wunderground v.1.15,2013-02-26 11:35:00,
2013-02-26 03:36:00,36.5,34.1,30.33,SE,124,0.0,-999.0,91,0.00,,,0.00,0,Wunderground v.1.15,2013-02-26 11:36:00,
2013-02-26 03:38:00,36.5,34.1,30.33,SE,124,0.0,-999.0,91,0.00,,,0.00,0,Wunderground v.1.15,2013-02-26 11:38:00,
2013-02-26 03:39:00,36.5,34.1,30.33,SE,124,0.0,-999.0,91,0.00,,,0.00,0,Wunderground v.1.15,2013-02-26 11:39:00,
2013-02-26 03:40:00,36.5,34.1,30.33,SE,124,0.0,-999.0,91,0.00,,,0.00,0,Wunderground v.1.15,2013-02-26 11:40:00,
2013-02-26 03:42:00,36.5,34.1,30.33,SE,124,0.0,-999.0,91,0.00,,,0.00,0,Wunderground v.1.15,2013-02-26 11:42:00,
2013-02-26 03:44:00,36.4,34.0,30.33,South,180,0.0,-999.0,91,0.00,,,0.00,0,Wunderground v.1.15,2013-02-26 11:44:00,
2013-02-26 03:45:00,36.4,34.0,30.33,South,180,0.0,-999.0,91,0.00,,,0.00,0,Wunderground v.1.15,2013-02-26 11:45:00,
2013-02-26 03:47:00,36.4,34.0,30.33,South,180,0.0,-999.0,91,0.00,,,0.00,0,Wunderground v.1.15,2013-02-26 11:47:00,
2013-02-26 03:49:00,36.4,34.0,30.33,South,180,0.0,-999.0,91,0.00,,,0.00,0,Wunderground v.1.15,2013-02-26 11:49:00,
2013-02-26 03:50:00,36.4,34.0,30.33,SSE,160,0.0,-999.0,91,0.00,,,0.00,0,Wunderground v.1.15,2013-02-26 11:50:00,
2013-02-26 03:53:00,36.4,34.0,30.33,SSE,160,0.0,-999.0,91,0.00,,,0.00,0,Wunderground v.1.15,2013-02-26 11:53:00,
2013-02-26 03:54:00,36.2,33.8,30.33,SSE,159,0.0,-999.0,91,0.00,,,0.00,0,Wunderground v.1.15,2013-02-26 11:54:00,
2013-02-26 03:55:00,36.2,33.8,30.33,SSE,160,0.0,-999.0,91,0.00,,,0.00,0,Wunderground v.1.15,2013-02-26 11:55:00,
2013-02-26 03:58:00,36.2,33.8,30.33,SSE,156,0.0,-999.0,91,0.00,,,0.00,0,Wunderground v.1.15,2013-02-26 11:58:00,
2013-02-26 04:00:00,36.2,33.8,30.33,SSE,150,1.0,-999.0,91,0.00,,,0.00,0,Wunderground v.1.15,2013-02-26 12:00:00,
2013-02-26 04:03:00,36.2,33.8,30.33,SSE,152,0.0,-999.0,91,0.00,,,0.00,0,Wunderground v.1.15,2013-02-26 12:03:00,
2013-02-26 04:05:00,36.2,33.8,30.33,NE,52,0.0,-999.0,91,0.00,,,0.00,0,Wunderground v.1.15,2013-02-26 12:05:00,
2013-02-26 04:08:00,36.1,33.7,30.33,NE,52,0.0,-999.0,91,0.00,,,0.00,0,Wunderground v.1.15,2013-02-26 12:08:00,
2013-02-26 04:10:00,36.1,33.7,30.33,NE,52,0.0,-999.0,91,0.00,,,0.00,0,Wunderground v.1.15,2013-02-26 12:10:00,
2013-02-26 04:11:00,36.1,33.7,30.33,NE,52,0.0,-999.0,91,0.00,,,0.00,0,Wunderground v.1.15,2013-02-26 12:11:00,
2013-02-26 04:13:00,36.1,33.7,30.33,NE,52,0.0,-999.0,91,0.00,,,0.00,0,Wunderground v.1.15,2013-02-26 12:13:00,
2013-02-26 04:15:00,36.1,33.7,30.33,NE,45,0.0,-999.0,91,0.00,,,0.00,0,Wunderground v.1.15,2013-02-26 12:15:00,
2013-02-26 04:16:00,36.1,33.7,30.33,NE,52,0.0,-999.0,91,0.00,,,0.00,0,Wunderground v.1.15,2013-02-26 12:16:00,
2013-02-26 04:18:00,36.1,33.7,30.33,NE,52,0.0,-999.0,91,0.00,,,0.00,0,Wunderground v.1.15,2013-02-26 12:18:00,
2013-02-26 04:20:00,36.1,33.7,30.33,NE,52,0.0,-999.0,91,0.00,,,0.00,0,Wunderground v.1.15,2013-02-26 12:20:00,
2013-02-26 04:21:00,36.1,33.7,30.33,NE,52,0.0,-999.0,91,0.00,,,0.00,0,Wunderground v.1.15,2013-02-26 12:21:00,
2013-02-26 04:22:00,36.1,33.7,30.33,NE,52,0.0,-999.0,91,0.00,,,0.00,0,Wunderground v.1.15,2013-02-26 12:22:00,
2013-02-26 04:23:00,36.1,33.7,30.33,NE,52,0.0,-999.0,91,0.00,,,0.00,0,Wunderground v.1.15,2013-02-26 12:23:00,
2013-02-26 04:25:00,36.1,33.7,30.33,NE,52,0.0,-999.0,91,0.00,,,0.00,0,Wunderground v.1.15,2013-02-26 12:25:00,
2013-02-26 04:26:00,36.1,33.7,30.33,NE,52,0.0,-999.0,91,0.00,,,0.00,0,Wunderground v.1.15,2013-02-26 12:26:00,
2013-02-26 04:27:00,36.1,33.7,30.33,NE,52,0.0,-999.0,91,0.00,,,0.00,0,Wunderground v.1.15,2013-02-26 12:27:00,
2013-02-26 04:28:00,36.1,33.7,30.33,NE,52,0.0,-999.0,91,0.00,,,0.00,0,Wunderground v.1.15,2013-02-26 12:28:00,
2013-02-26 04:30:00,36.1,33.7,30.34,NE,52,0.0,-999.0,91,0.00,,,0.00,0,Wunderground v.1.15,2013-02-26 12:30:00,
2013-02-26 04:31:00,36.1,33.7,30.34,ENE,70,0.0,-999.0,91,0.00,,,0.00,0,Wunderground v.1.15,2013-02-26 12:31:00,
2013-02-26 04:32:00,36.1,33.7,30.34,ENE,70,0.0,-999.0,91,0.00,,,0.00,0,Wunderground v.1.15,2013-02-26 12:32:00,
2013-02-26 04:34:00,36.1,33.7,30.34,ENE,70,0.0,-999.0,91,0.00,,,0.00,0,Wunderground v.1.15,2013-02-26 12:34:00,
2013-02-26 04:36:00,36.1,33.7,30.34,ENE,71,0.0,-999.0,91,0.00,,,0.00,0,Wunderground v.1.15,2013-02-26 12:36:00,
2013-02-26 04:37:00,36.1,33.7,30.34,ENE,70,0.0,-999.0,91,0.00,,,0.00,0,Wunderground v.1.15,2013-02-26 12:37:00,
2013-02-26 04:38:00,36.2,33.8,30.34,ENE,70,0.0,-999.0,91,0.00,,,0.00,0,Wunderground v.1.15,2013-02-26 12:38:00,
2013-02-26 04:39:00,36.2,33.8,30.34,ENE,70,0.0,-999.0,91,0.00,,,0.00,0,Wunderground v.1.15,2013-02-26 12:39:00,
2013-02-26 04:41:00,36.2,33.8,30.34,ENE,70,0.0,-999.0,91,0.00,,,0.00,0,Wunderground v.1.15,2013-02-26 12:41:00,
2013-02-26 04:43:00,36.2,33.8,30.34,ENE,70,0.0,-999.0,91,0.00,,,0.00,0,Wunderground v.1.15,2013-02-26 12:43:00,
2013-02-26 04:46:00,36.2,33.8,30.34,ENE,70,0.0,-999.0,91,0.00,,,0.00,0,Wunderground v.1.15,2013-02-26 12:46:00,
2013-02-26 04:48:00,36.2,33.8,30.34,ENE,71,0.0,-999.0,91,0.00,,,0.00,0,Wunderground v.1.15,2013-02-26 12:48:00,
2013-02-26 04:49:00,36.2,33.8,30.34,ENE,70,0.0,-999.0,91,0.00,,,0.00,0,Wunderground v.1.15,2013-02-26 12:49:00,
2013-02-26 04:51:00,36.2,33.8,30.34,ENE,70,0.0,-999.0,91,0.00,,,0.00,0,Wunderground v.1.15,2013-02-26 12:51:00,
2013-02-26 04:53:00,36.2,33.8,30.34,SE,139,0.0,-999.0,91,0.00,,,0.00,0,Wunderground v.1.15,2013-02-26 12:53:00,
2013-02-26 04:55:00,36.2,33.8,30.34,SE,139,0.0,-999.0,91,0.00,,,0.00,0,Wunderground v.1.15,2013-02-26 12:55:00,
2013-02-26 04:56:00,36.2,33.8,30.34,SE,139,0.0,-999.0,91,0.00,,,0.00,0,Wunderground v.1.15,2013-02-26 12:56:00,
2013-02-26 04:58:00,36.1,33.7,30.34,SE,139,0.0,-999.0,91,0.00,,,0.00,0,Wunderground v.1.15,2013-02-26 12:58:00,
2013-02-26 05:00:00,36.1,33.7,30.34,SE,139,0.0,-999.0,91,0.00,,,0.00,0,Wunderground v.1.15,2013-02-26 13:00:00,
2013-02-26 05:01:00,36.1,33.7,30.35,SE,136,1.0,-999.0,91,0.00,,,0.00,0,Wunderground v.1.15,2013-02-26 13:01:00,
2013-02-26 05:04:00,36.1,33.7,30.35,SE,139,0.0,-999.0,91,0.00,,,0.00,0,Wunderground v.1.15,2013-02-26 13:04:00,
2013-02-26 05:06:00,36.1,33.7,30.35,SE,139,0.0,-999.0,91,0.00,,,0.00,0,Wunderground v.1.15,2013-02-26 13:06:00,
2013-02-26 05:07:00,36.1,33.7,30.35,SE,139,0.0,-999.0,91,0.00,,,0.00,0,Wunderground v.1.15,2013-02-26 13:07:00,
2013-02-26 05:09:00,36.2,33.8,30.35,SE,139,0.0,-999.0,91,0.00,,,0.00,0,Wunderground v.1.15,2013-02-26 13:09:00,
2013-02-26 05:11:00,36.2,33.8,30.35,SE,139,0.0,-999.0,91,0.00,,,0.00,0,Wunderground v.1.15,2013-02-26 13:11:00,
2013-02-26 05:12:00,36.2,33.8,30.35,SE,143,1.0,-999.0,91,0.00,,,0.00,0,Wunderground v.1.15,2013-02-26 13:12:00,
2013-02-26 05:14:00,36.2,33.8,30.35,SE,143,0.0,-999.0,91,0.00,,,0.00,0,Wunderground v.1.15,2013-02-26 13:14:00,
2013-02-26 05:17:00,36.2,33.8,30.35,SE,143,0.0,-999.0,91,0.00,,,0.00,0,Wunderground v.1.15,2013-02-26 13:17:00,
2013-02-26 05:18:00,36.2,33.8,30.35,SE,143,0.0,-999.0,91,0.00,,,0.00,0,Wunderground v.1.15,2013-02-26 13:18:00,
2013-02-26 05:19:00,36.2,33.8,30.35,SE,143,0.0,-999.0,91,0.00,,,0.00,0,Wunderground v.1.15,2013-02-26 13:19:00,
2013-02-26 05:22:00,36.2,33.8,30.35,SE,143,0.0,-999.0,91,0.00,,,0.00,0,Wunderground v.1.15,2013-02-26 13:22:00,
2013-02-26 05:23:00,36.2,33.8,30.35,SE,143,0.0,-999.0,91,0.00,,,0.00,0,Wunderground v.1.15,2013-02-26 13:23:00,
2013-02-26 05:24:00,36.2,33.8,30.35,SE,143,0.0,-999.0,91,0.00,,,0.00,0,Wunderground v.1.15,2013-02-26 13:24:00,
2013-02-26 05:27:00,36.4,34.0,30.35,SE,143,0.0,-999.0,91,0.00,,,0.00,0,Wunderground v.1.15,2013-02-26 13:27:00,
2013-02-26 05:29:00,36.4,34.0,30.35,SE,143,0.0,-999.0,91,0.00,,,0.00,0,Wunderground v.1.15,2013-02-26 13:29:00,
2013-02-26 05:30:00,36.4,34.0,30.35,SE,143,0.0,-999.0,91,0.00,,,0.00,0,Wunderground v.1.15,2013-02-26 13:30:00,
2013-02-26 05:32:00,36.4,34.0,30.35,ESE,112,0.0,-999.0,91,0.00,,,0.00,0,Wunderground v.1.15,2013-02-26 13:32:00,
2013-02-26 05:34:00,36.4,34.0,30.35,ESE,112,0.0,-999.0,91,0.00,,,0.00,0,Wunderground v.1.15,2013-02-26 13:34:00,
2013-02-26 05:35:00,36.4,34.0,30.35,ESE,112,0.0,-999.0,91,0.00,,,0.00,0,Wunderground v.1.15,2013-02-26 13:35:00,
2013-02-26 05:38:00,36.4,34.0,30.35,ESE,112,0.0,-999.0,91,0.00,,,0.00,0,Wunderground v.1.15,2013-02-26 13:38:00,
2013-02-26 05:40:00,36.4,34.0,30.35,ESE,112,0.0,-999.0,91,0.00,,,0.00,0,Wunderground v.1.15,2013-02-26 13:40:00,
2013-02-26 05:43:00,36.5,34.1,30.35,ESE,112,0.0,-999.0,91,0.00,,,0.00,0,Wunderground v.1.15,2013-02-26 13:43:00,
2013-02-26 05:45:00,36.5,34.1,30.35,ESE,112,0.0,-999.0,91,0.00,,,0.00,0,Wunderground v.1.15,2013-02-26 13:45:00,
2013-02-26 05:48:00,36.5,34.1,30.34,ESE,112,0.0,-999.0,91,0.00,,,0.00,0,Wunderground v.1.15,2013-02-26 13:48:00,
2013-02-26 05:50:00,36.5,34.1,30.34,ESE,112,0.0,-999.0,91,0.00,,,0.00,0,Wunderground v.1.15,2013-02-26 13:50:00,
2013-02-26 05:53:00,36.5,34.1,30.34,ESE,112,0.0,-999.0,91,0.00,,,0.00,0,Wunderground v.1.15,2013-02-26 13:53:00,
2013-02-26 05:55:00,36.6,34.2,30.34,ESE,112,0.0,-999.0,91,0.00,,,0.00,0,Wunderground v.1.15,2013-02-26 13:55:00,
2013-02-26 05:56:00,36.6,34.2,30.34,ESE,112,0.0,-999.0,91,0.00,,,0.00,0,Wunderground v.1.15,2013-02-26 13:56:00,
2013-02-26 05:59:00,36.6,34.2,30.34,ESE,112,0.0,-999.0,91,0.00,,,0.00,0,Wunderground v.1.15,2013-02-26 13:59:00,
2013-02-26 06:00:00,36.6,34.2,30.34,ESE,112,0.0,-999.0,91,0.00,,,0.00,0,Wunderground v.1.15,2013-02-26 14:00:00,
2013-02-26 06:01:00,36.6,34.2,30.34,ESE,112,0.0,-999.0,91,0.00,,,0.00,0,Wunderground v.1.15,2013-02-26 14:01:00,
2013-02-26 06:05:00,36.6,34.2,30.34,ESE,112,0.0,-999.0,91,0.00,,,0.00,0,Wunderground v.1.15,2013-02-26 14:05:00,
2013-02-26 06:06:00,36.8,34.4,30.34,ESE,112,0.0,-999.0,91,0.00,,,0.00,0,Wunderground v.1.15,2013-02-26 14:06:00,
2013-02-26 06:07:00,36.8,34.4,30.34,ESE,112,0.0,-999.0,91,0.00,,,0.00,0,Wunderground v.1.15,2013-02-26 14:07:00,
2013-02-26 06:10:00,36.8,34.4,30.34,SE,146,0.0,-999.0,91,0.00,,,0.00,0,Wunderground v.1.15,2013-02-26 14:10:00,
2013-02-26 06:11:00,36.8,34.4,30.34,SE,146,0.0,-999.0,91,0.00,,,0.00,0,Wunderground v.1.15,2013-02-26 14:11:00,
2013-02-26 06:12:00,36.8,34.4,30.34,SE,146,0.0,-999.0,91,0.00,,,0.00,0,Wunderground v.1.15,2013-02-26 14:12:00,
2013-02-26 06:15:00,36.8,34.4,30.34,SSE,148,0.0,-999.0,91,0.00,,,0.00,0,Wunderground v.1.15,2013-02-26 14:15:00,
2013-02-26 06:16:00,36.8,34.4,30.34,SSE,148,0.0,-999.0,91,0.00,,,0.00,0,Wunderground v.1.15,2013-02-26 14:16:00,
2013-02-26 06:17:00,36.8,34.4,30.34,SSE,148,0.0,-999.0,91,0.00,,,0.00,0,Wunderground v.1.15,2013-02-26 14:17:00,
2013-02-26 06:20:00,36.8,34.4,30.34,SSE,148,0.0,-999.0,91,0.00,,,0.00,0,Wunderground v.1.15,2013-02-26 14:20:00,
2013-02-26 06:22:00,36.8,34.4,30.34,SSE,148,0.0,-999.0,91,0.00,,,0.00,0,Wunderground v.1.15,2013-02-26 14:22:00,
2013-02-26 06:25:00,36.8,34.4,30.34,SSE,155,0.0,-999.0,91,0.00,,,0.00,0,Wunderground v.1.15,2013-02-26 14:25:00,
2013-02-26 06:27:00,36.8,34.4,30.34,SSE,155,0.0,-999.0,91,0.00,,,0.00,0,Wunderground v.1.15,2013-02-26 14:27:00,
2013-02-26 06:28:00,36.8,34.4,30.34,SSE,155,0.0,-999.0,91,0.00,,,0.00,0,Wunderground v.1.15,2013-02-26 14:28:00,
2013-02-26 06:30:00,36.6,34.2,30.34,SSE,155,0.0,-999.0,91,0.00,,,0.00,0,Wunderground v.1.15,2013-02-26 14:30:00,
2013-02-26 06:32:00,36.6,34.2,30.35,SSE,155,0.0,-999.0,91,0.00,,,0.00,0,Wunderground v.1.15,2013-02-26 14:32:00,
2013-02-26 06:33:00,36.6,34.2,30.35,SSE,155,0.0,-999.0,91,0.00,,,0.00,0,Wunderground v.1.15,2013-02-26 14:33:00,
2013-02-26 06:35:00,36.6,34.2,30.35,ESE,117,1.0,-999.0,91,0.00,,,0.00,0,Wunderground v.1.15,2013-02-26 14:35:00,
2013-02-26 06:37:00,36.6,34.2,30.35,ESE,117,0.0,-999.0,91,0.00,,,0.00,0,Wunderground v.1.15,2013-02-26 14:37:00,
2013-02-26 06:38:00,36.6,34.2,30.35,ESE,117,0.0,-999.0,91,0.00,,,0.00,0,Wunderground v.1.15,2013-02-26 14:38:00,
2013-02-26 06:41:00,36.6,34.2,30.35,ESE,117,0.0,-999.0,91,0.00,,,0.00,0,Wunderground v.1.15,2013-02-26 14:41:00,
2013-02-26 06:42:00,36.6,34.2,30.35,ESE,117,0.0,-999.0,91,0.00,,,0.00,0,Wunderground v.1.15,2013-02-26 14:42:00,
2013-02-26 06:43:00,36.6,34.2,30.35,ESE,117,0.0,-999.0,91,0.00,,,0.00,0,Wunderground v.1.15,2013-02-26 14:43:00,
2013-02-26 06:44:00,36.6,34.2,30.35,ESE,117,0.0,-999.0,91,0.00,,,0.00,0,Wunderground v.1.15,2013-02-26 14:44:00,
2013-02-26 06:46:00,36.6,34.2,30.34,ESE,117,0.0,-999.0,91,0.00,,,0.00,0,Wunderground v.1.15,2013-02-26 14:46:00,
2013-02-26 06:48:00,36.6,34.2,30.34,SSE,162,0.0,-999.0,91,0.00,,,0.00,0,Wunderground v.1.15,2013-02-26 14:48:00,
2013-02-26 06:49:00,36.6,34.2,30.34,SSE,162,0.0,-999.0,91,0.00,,,0.00,0,Wunderground v.1.15,2013-02-26 14:49:00,
2013-02-26 06:51:00,36.6,34.2,30.34,SSE,162,0.0,-999.0,91,0.00,,,0.00,0,Wunderground v.1.15,2013-02-26 14:51:00,
2013-02-26 06:53:00,36.6,34.2,30.34,SSE,162,0.0,-999.0,91,0.00,,,0.00,0,Wunderground v.1.15,2013-02-26 14:53:00,
2013-02-26 06:54:00,36.6,34.2,30.34,SSE,162,0.0,-999.0,91,0.00,,,0.00,0,Wunderground v.1.15,2013-02-26 14:54:00,
2013-02-26 06:56:00,36.6,34.2,30.34,SSE,162,0.0,-999.0,91,0.00,,,0.00,0,Wunderground v.1.15,2013-02-26 14:56:00,
2013-02-26 06:58:00,36.6,34.2,30.34,SSE,163,0.0,-999.0,91,0.00,,,0.00,0,Wunderground v.1.15,2013-02-26 14:58:00,
2013-02-26 06:59:00,36.6,34.2,30.34,SSE,163,0.0,-999.0,91,0.00,,,0.00,0,Wunderground v.1.15,2013-02-26 14:59:00,
2013-02-26 07:01:00,36.6,34.2,30.34,SSE,163,0.0,-999.0,91,0.00,,,0.00,0,Wunderground v.1.15,2013-02-26 15:01:00,
2013-02-26 07:03:00,36.6,34.2,30.34,SSE,163,0.0,-999.0,91,0.00,,,0.00,0,Wunderground v.1.15,2013-02-26 15:03:00,
2013-02-26 07:04:00,36.6,34.2,30.34,SE,124,1.0,-999.0,91,0.00,,,0.00,0,Wunderground v.1.15,2013-02-26 15:04:00,
2013-02-26 07:07:00,36.6,34.2,30.34,SE,126,0.0,-999.0,91,0.00,,,0.00,0,Wunderground v.1.15,2013-02-26 15:07:00,
2013-02-26 07:08:00,36.6,34.2,30.34,SSE,150,1.0,-999.0,91,0.00,,,0.00,0,Wunderground v.1.15,2013-02-26 15:08:00,
2013-02-26 07:10:00,36.6,34.2,30.34,SSE,150,0.0,-999.0,91,0.00,,,0.00,0,Wunderground v.1.15,2013-02-26 15:10:00,
2013-02-26 07:12:00,36.6,34.2,30.34,SSE,150,0.0,-999.0,91,0.00,,,0.00,0,Wunderground v.1.15,2013-02-26 15:12:00,
2013-02-26 07:13:00,36.8,34.4,30.34,SE,128,3.0,-999.0,91,0.00,,,0.00,0,Wunderground v.1.15,2013-02-26 15:13:00,
2013-02-26 07:15:00,36.8,34.4,30.34,SSE,162,0.0,-999.0,91,0.00,,,0.00,0,Wunderground v.1.15,2013-02-26 15:15:00,
2013-02-26 07:17:00,36.8,34.4,30.34,SSE,162,0.0,-999.0,91,0.00,,,0.00,0,Wunderground v.1.15,2013-02-26 15:17:00,
2013-02-26 07:18:00,36.8,34.4,30.34,SSE,162,0.0,-999.0,91,0.00,,,0.00,0,Wunderground v.1.15,2013-02-26 15:18:00,
2013-02-26 07:20:00,36.8,34.4,30.34,SE,135,0.0,-999.0,91,0.00,,,0.00,7,Wunderground v.1.15,2013-02-26 15:20:00,
2013-02-26 07:22:00,36.9,34.5,30.34,SE,135,0.0,-999.0,91,0.00,,,0.00,7,Wunderground v.1.15,2013-02-26 15:22:00,
2013-02-26 07:23:00,36.9,34.5,30.34,SE,135,0.0,-999.0,91,0.00,,,0.00,5,Wunderground v.1.15,2013-02-26 15:23:00,
2013-02-26 07:25:00,36.9,34.5,30.34,SE,135,0.0,-999.0,91,0.00,,,0.00,5,Wunderground v.1.15,2013-02-26 15:25:00,
2013-02-26 07:26:00,36.9,34.5,30.34,SE,135,0.0,-999.0,91,0.00,,,0.00,5,Wunderground v.1.15,2013-02-26 15:26:00,
2013-02-26 07:28:00,36.9,34.5,30.34,SE,135,0.0,-999.0,91,0.00,,,0.00,11,Wunderground v.1.15,2013-02-26 15:28:00,
2013-02-26 07:29:00,36.9,34.5,30.34,SSE,165,0.0,-999.0,91,0.00,,,0.00,11,Wunderground v.1.15,2013-02-26 15:29:00,
2013-02-26 07:30:00,36.9,34.5,30.34,SSE,165,0.0,-999.0,91,0.00,,,0.00,11,Wunderground v.1.15,2013-02-26 15:30:00,
2013-02-26 07:31:00,36.9,34.5,30.34,SSE,165,0.0,-999.0,91,0.00,,,0.00,11,Wunderground v.1.15,2013-02-26 15:31:00,
2013-02-26 07:33:00,36.9,34.5,30.34,SSE,165,0.0,-999.0,91,0.00,,,0.00,11,Wunderground v.1.15,2013-02-26 15:33:00,
2013-02-26 07:34:00,36.9,34.5,30.34,SSE,165,0.0,-999.0,91,0.00,,,0.00,11,Wunderground v.1.15,2013-02-26 15:34:00,
2013-02-26 07:35:00,36.9,34.5,30.34,SSE,165,0.0,-999.0,91,0.00,,,0.00,11,Wunderground v.1.15,2013-02-26 15:35:00,
2013-02-26 07:36:00,36.9,34.5,30.34,SSE,165,0.0,-999.0,91,0.00,,,0.00,11,Wunderground v.1.15,2013-02-26 15:36:00,
2013-02-26 07:38:00,36.9,34.5,30.34,SSE,165,0.0,-999.0,91,0.00,,,0.00,11,Wunderground v.1.15,2013-02-26 15:38:00,
2013-02-26 07:40:00,37.1,34.7,30.34,SSE,165,0.0,-999.0,91,0.00,,,0.00,11,Wunderground v.1.15,2013-02-26 15:40:00,
2013-02-26 07:41:00,37.1,34.7,30.34,SSE,165,0.0,-999.0,91,0.00,,,0.00,11,Wunderground v.1.15,2013-02-26 15:41:00,
2013-02-26 07:43:00,37.1,34.7,30.34,SSE,165,0.0,-999.0,91,0.00,,,0.00,11,Wunderground v.1.15,2013-02-26 15:43:00,
2013-02-26 07:45:00,37.1,34.7,30.34,SSE,165,0.0,-999.0,91,0.00,,,0.00,16,Wunderground v.1.15,2013-02-26 15:45:00,
2013-02-26 07:46:00,37.1,34.7,30.35,SSE,165,0.0,-999.0,91,0.00,,,0.00,16,Wunderground v.1.15,2013-02-26 15:46:00,
2013-02-26 07:48:00,37.1,34.7,30.35,ESE,105,0.0,-999.0,91,0.00,,,0.00,14,Wunderground v.1.15,2013-02-26 15:48:00,
2013-02-26 07:50:00,37.2,34.8,30.35,ESE,105,0.0,-999.0,91,0.00,,,0.00,14,Wunderground v.1.15,2013-02-26 15:50:00,
2013-02-26 07:51:00,37.2,34.8,30.35,ESE,105,0.0,-999.0,91,0.00,,,0.00,14,Wunderground v.1.15,2013-02-26 15:51:00,
2013-02-26 07:54:00,37.2,34.8,30.35,ESE,105,0.0,-999.0,91,0.00,,,0.00,12,Wunderground v.1.15,2013-02-26 15:54:00,
2013-02-26 07:56:00,37.2,34.8,30.35,ESE,105,0.0,-999.0,91,0.00,,,0.00,12,Wunderground v.1.15,2013-02-26 15:56:00,
2013-02-26 07:59:00,37.4,34.7,30.35,SE,143,0.0,-999.0,90,0.00,,,0.00,12,Wunderground v.1.15,2013-02-26 15:59:00,
2013-02-26 08:01:00,37.5,34.8,30.35,SE,142,0.0,-999.0,90,0.00,,,0.00,14,Wunderground v.1.15,2013-02-26 16:01:00,
2013-02-26 08:02:00,37.5,34.8,30.35,SE,142,0.0,-999.0,90,0.00,,,0.00,14,Wunderground v.1.15,2013-02-26 16:02:00,
2013-02-26 08:04:00,37.5,34.8,30.35,SE,142,0.0,-999.0,90,0.00,,,0.00,14,Wunderground v.1.15,2013-02-26 16:04:00,
2013-02-26 08:06:00,37.6,34.9,30.35,SE,142,0.0,-999.0,90,0.00,,,0.00,12,Wunderground v.1.15,2013-02-26 16:06:00,
2013-02-26 08:07:00,37.6,34.9,30.35,SE,142,0.0,-999.0,90,0.00,,,0.00,12,Wunderground v.1.15,2013-02-26 16:07:00,
2013-02-26 08:09:00,37.6,34.9,30.35,SSE,157,0.0,-999.0,90,0.00,,,0.00,18,Wunderground v.1.15,2013-02-26 16:09:00,
2013-02-26 08:11:00,37.8,35.1,30.35,SSE,157,0.0,-999.0,90,0.00,,,0.00,18,Wunderground v.1.15,2013-02-26 16:11:00,
2013-02-26 08:12:00,37.8,35.1,30.35,SSE,157,0.0,-999.0,90,0.00,,,0.00,18,Wunderground v.1.15,2013-02-26 16:12:00,
2013-02-26 08:15:00,37.8,35.1,30.35,SSE,157,0.0,-999.0,90,0.00,,,0.00,19,Wunderground v.1.15,2013-02-26 16:15:00,
2013-02-26 08:16:00,37.9,35.2,30.35,SSE,157,1.0,-999.0,90,0.00,,,0.00,19,Wunderground v.1.15,2013-02-26 16:16:00,
2013-02-26 08:17:00,37.9,34.9,30.35,SSE,155,3.0,-999.0,89,0.00,,,0.00,23,Wunderground v.1.15,2013-02-26 16:17:00,
2013-02-26 08:20:00,37.9,34.9,30.35,SSE,150,0.0,-999.0,89,0.00,,,0.00,23,Wunderground v.1.15,2013-02-26 16:20:00,
2013-02-26 08:21:00,38.1,35.1,30.35,SSE,150,0.0,-999.0,89,0.00,,,0.00,25,Wunderground v.1.15,2013-02-26 16:21:00,
2013-02-26 08:22:00,38.1,35.1,30.35,SSE,150,1.0,-999.0,89,0.00,,,0.00,25,Wunderground v.1.15,2013-02-26 16:22:00,
2013-02-26 08:25:00,38.1,35.1,30.35,SSE,150,0.0,-999.0,89,0.00,,,0.00,25,Wunderground v.1.15,2013-02-26 16:25:00,
2013-02-26 08:26:00,38.2,35.2,30.35,SSE,150,0.0,-999.0,89,0.00,,,0.00,39,Wunderground v.1.15,2013-02-26 16:26:00,
2013-02-26 08:27:00,38.2,35.2,30.35,SE,132,1.0,-999.0,89,0.00,,,0.00,39,Wunderground v.1.15,2013-02-26 16:27:00,
2013-02-26 08:29:00,38.2,35.2,30.35,SE,132,1.0,-999.0,89,0.00,,,0.00,39,Wunderground v.1.15,2013-02-26 16:29:00,
2013-02-26 08:30:00,38.4,35.4,30.35,ESE,121,0.0,-999.0,89,0.00,,,0.00,49,Wunderground v.1.15,2013-02-26 16:30:00,
2013-02-26 08:32:00,38.4,35.4,30.35,ESE,121,0.0,-999.0,89,0.00,,,0.00,49,Wunderground v.1.15,2013-02-26 16:32:00,
2013-02-26 08:33:00,38.4,35.4,30.35,ESE,121,0.0,-999.0,89,0.00,,,0.00,49,Wunderground v.1.15,2013-02-26 16:33:00,
2013-02-26 08:34:00,38.4,35.4,30.35,ESE,121,0.0,-999.0,89,0.00,,,0.00,58,Wunderground v.1.15,2013-02-26 16:34:00,
2013-02-26 08:35:00,38.5,35.5,30.35,ESE,121,0.0,-999.0,89,0.00,,,0.00,62,Wunderground v.1.15,2013-02-26 16:35:00,
2013-02-26 08:37:00,38.5,35.5,30.35,SE,136,1.0,-999.0,89,0.00,,,0.00,56,Wunderground v.1.15,2013-02-26 16:37:00,
2013-02-26 08:38:00,38.6,35.6,30.35,SSE,155,0.0,-999.0,89,0.00,,,0.00,56,Wunderground v.1.15,2013-02-26 16:38:00,
2013-02-26 08:39:00,38.6,35.6,30.35,SE,129,1.0,-999.0,89,0.00,,,0.00,56,Wunderground v.1.15,2013-02-26 16:39:00,
2013-02-26 08:40:00,38.6,35.4,30.35,SE,129,0.0,-999.0,88,0.00,,,0.00,58,Wunderground v.1.15,2013-02-26 16:40:00,
2013-02-26 08:42:00,38.6,35.4,30.35,SE,141,1.0,-999.0,88,0.00,,,0.00,46,Wunderground v.1.15,2013-02-26 16:42:00,
2013-02-26 08:44:00,38.8,35.6,30.35,SE,141,0.0,-999.0,88,0.00,,,0.00,42,Wunderground v.1.15,2013-02-26 16:44:00,
2013-02-26 08:45:00,38.8,35.6,30.35,SE,141,0.0,-999.0,88,0.00,,,0.00,42,Wunderground v.1.15,2013-02-26 16:45:00,
2013-02-26 08:47:00,38.8,35.6,30.35,SE,145,1.0,-999.0,88,0.00,,,0.00,42,Wunderground v.1.15,2013-02-26 16:47:00,
2013-02-26 08:49:00,38.9,35.6,30.35,SE,145,0.0,-999.0,88,0.00,,,0.00,51,Wunderground v.1.15,2013-02-26 16:49:00,
2013-02-26 08:50:00,38.9,35.6,30.35,SE,145,0.0,-999.0,88,0.00,,,0.00,51,Wunderground v.1.15,2013-02-26 16:50:00,
2013-02-26 08:52:00,38.9,35.6,30.35,SE,128,0.0,-999.0,88,0.00,,,0.00,60,Wunderground v.1.15,2013-02-26 16:52:00,
2013-02-26 08:54:00,39.1,35.8,30.35,SE,128,1.0,-999.0,88,0.00,,,0.00,60,Wunderground v.1.15,2013-02-26 16:54:00,
2013-02-26 08:55:00,39.1,35.8,30.35,SE,141,2.0,-999.0,88,0.00,,,0.00,62,Wunderground v.1.15,2013-02-26 16:55:00,
2013-02-26 08:56:00,39.1,35.8,30.35,SE,141,1.0,-999.0,88,0.00,,,0.00,65,Wunderground v.1.15,2013-02-26 16:56:00,
2013-02-26 08:57:00,39.1,35.8,30.35,SE,141,0.0,-999.0,88,0.00,,,0.00,70,Wunderground v.1.15,2013-02-26 16:57:00,
2013-02-26 08:59:00,39.1,35.8,30.35,SE,141,0.0,-999.0,88,0.00,,,0.00,79,Wunderground v.1.15,2013-02-26 16:59:00,
2013-02-26 09:00:00,39.1,35.8,30.35,SE,141,1.0,-999.0,88,0.00,,,0.00,86,Wunderground v.1.15,2013-02-26 17:00:00,
2013-02-26 09:01:00,39.2,35.9,30.35,SE,141,0.0,-999.0,88,0.00,,,0.00,88,Wunderground v.1.15,2013-02-26 17:01:00,
2013-02-26 09:02:00,39.2,35.9,30.35,East,81,1.0,-999.0,88,0.00,,,0.00,77,Wunderground v.1.15,2013-02-26 17:02:00,
2013-02-26 09:04:00,39.4,36.1,30.35,East,81,0.0,-999.0,88,0.00,,,0.00,95,Wunderground v.1.15,2013-02-26 17:04:00,
2013-02-26 09:05:00,39.4,36.1,30.35,East,81,1.0,-999.0,88,0.00,,,0.00,95,Wunderground v.1.15,2013-02-26 17:05:00,
2013-02-26 09:06:00,39.4,35.9,30.35,East,81,0.0,-999.0,87,0.00,,,0.00,95,Wunderground v.1.15,2013-02-26 17:06:00,
2013-02-26 09:08:00,39.4,35.9,30.35,East,81,0.0,-999.0,87,0.00,,,0.00,106,Wunderground v.1.15,2013-02-26 17:08:00,
2013-02-26 09:09:00,39.5,36.0,30.35,SSE,165,1.0,-999.0,87,0.00,,,0.00,114,Wunderground v.1.15,2013-02-26 17:09:00,
2013-02-26 09:11:00,39.5,36.0,30.35,SSE,165,0.0,-999.0,87,0.00,,,0.00,104,Wunderground v.1.15,2013-02-26 17:11:00,
2013-02-26 09:13:00,39.7,36.1,30.35,South,170,0.0,-999.0,87,0.00,,,0.00,83,Wunderground v.1.15,2013-02-26 17:13:00,
2013-02-26 09:15:00,39.8,36.2,30.35,South,170,1.0,-999.0,87,0.00,,,0.00,67,Wunderground v.1.15,2013-02-26 17:15:00,
2013-02-26 09:16:00,39.8,36.2,30.35,South,170,1.0,-999.0,87,0.00,,,0.00,63,Wunderground v.1.15,2013-02-26 17:16:00,
2013-02-26 09:18:00,39.9,36.3,30.35,East,97,2.0,-999.0,87,0.00,,,0.00,67,Wunderground v.1.15,2013-02-26 17:18:00,
2013-02-26 09:20:00,39.9,36.1,30.35,SSE,152,0.0,-999.0,86,0.00,,,0.00,65,Wunderground v.1.15,2013-02-26 17:20:00,
2013-02-26 09:21:00,39.9,36.1,30.35,SSE,152,0.0,-999.0,86,0.00,,,0.00,63,Wunderground v.1.15,2013-02-26 17:21:00,
2013-02-26 09:24:00,40.1,36.2,30.35,SSE,155,1.0,-999.0,86,0.00,,,0.00,67,Wunderground v.1.15,2013-02-26 17:24:00,
2013-02-26 09:25:00,40.1,36.2,30.35,East,100,1.0,-999.0,86,0.00,,,0.00,67,Wunderground v.1.15,2013-02-26 17:25:00,
2013-02-26 09:26:00,40.1,36.2,30.35,East,100,1.0,-999.0,86,0.00,,,0.00,62,Wunderground v.1.15,2013-02-26 17:26:00,
2013-02-26 09:27:00,40.1,36.2,30.35,East,100,0.0,-999.0,86,0.00,,,0.00,62,Wunderground v.1.15,2013-02-26 17:27:00,
2013-02-26 09:29:00,40.2,36.3,30.35,East,94,0.0,-999.0,86,0.00,,,0.00,83,Wunderground v.1.15,2013-02-26 17:29:00,
2013-02-26 09:30:00,40.2,36.1,30.34,East,94,0.0,-999.0,85,0.00,,,0.00,95,Wunderground v.1.15,2013-02-26 17:30:00,
2013-02-26 09:31:00,40.2,36.1,30.34,East,94,0.0,-999.0,85,0.00,,,0.00,84,Wunderground v.1.15,2013-02-26 17:31:00,
2013-02-26 09:32:00,40.2,36.1,30.34,East,94,0.0,-999.0,85,0.00,,,0.00,86,Wunderground v.1.15,2013-02-26 17:32:00,
2013-02-26 09:34:00,40.4,36.2,30.34,East,94,0.0,-999.0,85,0.00,,,0.00,99,Wunderground v.1.15,2013-02-26 17:34:00,
2013-02-26 09:36:00,40.4,36.2,30.34,East,94,0.0,-999.0,85,0.00,,,0.00,128,Wunderground v.1.15,2013-02-26 17:36:00,
2013-02-26 09:38:00,40.5,36.3,30.34,East,94,1.0,-999.0,85,0.00,,,0.00,106,Wunderground v.1.15,2013-02-26 17:38:00,
2013-02-26 09:39:00,40.7,36.5,30.34,East,94,0.0,-999.0,85,0.00,,,0.00,128,Wunderground v.1.15,2013-02-26 17:39:00,
2013-02-26 09:41:00,40.7,36.5,30.34,ESE,104,1.0,-999.0,85,0.00,,,0.00,130,Wunderground v.1.15,2013-02-26 17:41:00,
2013-02-26 09:44:00,40.9,36.7,30.34,ESE,108,1.0,-999.0,85,0.00,,,0.00,97,Wunderground v.1.15,2013-02-26 17:44:00,
2013-02-26 09:45:00,40.9,36.7,30.34,ESE,107,2.0,-999.0,85,0.00,,,0.00,111,Wunderground v.1.15,2013-02-26 17:45:00,
2013-02-26 09:46:00,40.9,36.7,30.33,ESE,108,3.0,-999.0,85,0.00,,,0.00,114,Wunderground v.1.15,2013-02-26 17:46:00,
2013-02-26 09:49:00,41.1,36.6,30.33,East,101,1.0,-999.0,84,0.00,,,0.00,83,Wunderground v.1.15,2013-02-26 17:49:00,
2013-02-26 09:50:00,41.1,36.6,30.33,East,101,1.0,-999.0,84,0.00,,,0.00,88,Wunderground v.1.15,2013-02-26 17:50:00,
2013-02-26 09:51:00,41.2,36.7,30.33,East,101,0.0,-999.0,84,0.00,,,0.00,99,Wunderground v.1.15,2013-02-26 17:51:00,
2013-02-26 09:52:00,41.2,36.7,30.33,East,101,0.0,-999.0,84,0.00,,,0.00,99,Wunderground v.1.15,2013-02-26 17:52:00,
2013-02-26 09:54:00,41.4,36.6,30.33,East,101,0.0,-999.0,83,0.00,,,0.00,93,Wunderground v.1.15,2013-02-26 17:54:00,
2013-02-26 09:55:00,41.4,36.6,30.33,ESE,105,0.0,-999.0,83,0.00,,,0.00,81,Wunderground v.1.15,2013-02-26 17:55:00,
2013-02-26 09:56:00,41.4,36.3,30.33,East,97,0.0,-999.0,82,0.00,,,0.00,97,Wunderground v.1.15,2013-02-26 17:56:00,
2013-02-26 09:57:00,41.4,36.3,30.33,East,97,0.0,-999.0,82,0.00,,,0.00,97,Wunderground v.1.15,2013-02-26 17:57:00,
2013-02-26 09:59:00,41.5,36.4,30.33,SSE,149,1.0,-999.0,82,0.00,,,0.00,144,Wunderground v.1.15,2013-02-26 17:59:00,
2013-02-26 10:00:00,41.5,36.4,30.33,SW,229,2.0,-999.0,82,0.00,,,0.00,139,Wunderground v.1.15,2013-02-26 18:00:00,
2013-02-26 10:02:00,41.7,36.3,30.33,SE,146,2.0,-999.0,81,0.00,,,0.00,135,Wunderground v.1.15,2013-02-26 18:02:00,
2013-02-26 10:04:00,41.8,36.7,30.33,NW,320,0.0,-999.0,82,0.00,,,0.00,143,Wunderground v.1.15,2013-02-26 18:04:00,
2013-02-26 10:05:00,41.8,36.7,30.33,NW,320,1.0,-999.0,82,0.00,,,0.00,144,Wunderground v.1.15,2013-02-26 18:05:00,
2013-02-26 10:07:00,41.9,36.5,30.33,East,87,3.0,-999.0,81,0.00,,,0.00,143,Wunderground v.1.15,2013-02-26 18:07:00,
2013-02-26 10:08:00,41.9,36.5,30.33,SSE,150,1.0,-999.0,81,0.00,,,0.00,143,Wunderground v.1.15,2013-02-26 18:08:00,
2013-02-26 10:10:00,42.1,36.7,30.33,ESE,115,3.0,-999.0,81,0.00,,,0.00,141,Wunderground v.1.15,2013-02-26 18:10:00,
2013-02-26 10:11:00,42.1,36.4,30.33,SE,129,1.0,-999.0,80,0.00,,,0.00,139,Wunderground v.1.15,2013-02-26 18:11:00,
2013-02-26 10:13:00,42.2,36.2,30.33,SE,138,0.0,-999.0,79,0.00,,,0.00,137,Wunderground v.1.15,2013-02-26 18:13:00,
2013-02-26 10:15:00,42.2,36.2,30.33,SE,141,2.0,-999.0,79,0.00,,,0.00,134,Wunderground v.1.15,2013-02-26 18:15:00,
2013-02-26 10:16:00,42.4,36.3,30.33,ENE,77,1.0,-999.0,79,0.00,,,0.00,134,Wunderground v.1.15,2013-02-26 18:16:00,
2013-02-26 10:18:00,42.4,36.0,30.33,South,172,1.0,-999.0,78,0.00,,,0.00,127,Wunderground v.1.15,2013-02-26 18:18:00,
2013-02-26 10:20:00,42.4,36.0,30.33,SE,138,1.0,-999.0,78,0.00,,,0.00,113,Wunderground v.1.15,2013-02-26 18:20:00,
2013-02-26 10:21:00,42.4,36.0,30.33,SE,138,0.0,-999.0,78,0.00,,,0.00,113,Wunderground v.1.15,2013-02-26 18:21:00,
2013-02-26 10:23:00,42.4,36.0,30.33,SSE,153,1.0,-999.0,78,0.00,,,0.00,95,Wunderground v.1.15,2013-02-26 18:23:00,
2013-02-26 10:25:00,42.4,35.7,30.33,SE,136,3.0,-999.0,77,0.00,,,0.00,86,Wunderground v.1.15,2013-02-26 18:25:00,
2013-02-26 10:26:00,42.4,35.7,30.33,SE,143,0.0,-999.0,77,0.00,,,0.00,86,Wunderground v.1.15,2013-02-26 18:26:00,
2013-02-26 10:28:00,42.4,36.0,30.33,WSW,246,2.0,-999.0,78,0.00,,,0.00,90,Wunderground v.1.15,2013-02-26 18:28:00,
2013-02-26 10:31:00,42.4,35.7,30.32,East,83,1.0,-999.0,77,0.00,,,0.00,99,Wunderground v.1.15,2013-02-26 18:31:00,
2013-02-26 10:34:00,42.4,35.7,30.32,SSE,159,0.0,-999.0,77,0.00,,,0.00,128,Wunderground v.1.15,2013-02-26 18:34:00,
2013-02-26 10:36:00,42.4,36.0,30.32,ESE,117,6.0,-999.0,78,0.00,,,0.00,151,Wunderground v.1.15,2013-02-26 18:36:00,
2013-02-26 10:39:00,42.5,35.8,30.32,ESE,122,0.0,-999.0,77,0.00,,,0.00,107,Wunderground v.1.15,2013-02-26 18:39:00,
2013-02-26 10:41:00,42.5,36.1,30.32,WNW,293,1.0,-999.0,78,0.00,,,0.00,95,Wunderground v.1.15,2013-02-26 18:41:00,
2013-02-26 10:44:00,42.7,36.0,30.32,West,279,0.0,-999.0,77,0.00,,,0.00,109,Wunderground v.1.15,2013-02-26 18:44:00,
2013-02-26 10:46:00,42.7,36.0,30.32,SSW,196,2.0,-999.0,77,0.00,,,0.00,102,Wunderground v.1.15,2013-02-26 18:46:00,
2013-02-26 10:49:00,42.8,36.1,30.32,SSW,197,0.0,-999.0,77,0.00,,,0.00,72,Wunderground v.1.15,2013-02-26 18:49:00,
2013-02-26 10:51:00,42.8,36.1,30.32,SE,143,0.0,-999.0,77,0.00,,,0.00,55,Wunderground v.1.15,2013-02-26 18:51:00,
2013-02-26 10:54:00,42.8,36.1,30.32,SSW,196,0.0,-999.0,77,0.00,,,0.00,55,Wunderground v.1.15,2013-02-26 18:54:00,
2013-02-26 10:56:00,42.8,36.1,30.32,South,181,0.0,-999.0,77,0.00,,,0.00,91,Wunderground v.1.15,2013-02-26 18:56:00,
2013-02-26 10:59:00,42.8,36.1,30.32,ESE,117,1.0,-999.0,77,0.00,,,0.00,102,Wunderground v.1.15,2013-02-26 18:59:00,
2013-02-26 11:01:00,42.8,35.8,30.32,ESE,104,5.0,-999.0,76,0.00,,,0.00,90,Wunderground v.1.15,2013-02-26 19:01:00,
2013-02-26 11:02:00,42.8,35.8,30.32,ESE,104,2.0,-999.0,76,0.00,,,0.00,90,Wunderground v.1.15,2013-02-26 19:02:00,
2013-02-26 11:05:00,42.8,36.1,30.32,ESE,104,0.0,-999.0,77,0.00,,,0.00,79,Wunderground v.1.15,2013-02-26 19:05:00,
2013-02-26 11:07:00,42.8,36.1,30.32,ESE,104,0.0,-999.0,77,0.00,,,0.00,90,Wunderground v.1.15,2013-02-26 19:07:00,
2013-02-26 11:10:00,42.8,35.8,30.32,SE,145,1.0,-999.0,76,0.00,,,0.00,125,Wunderground v.1.15,2013-02-26 19:10:00,
2013-02-26 11:12:00,42.9,35.9,30.32,ESE,114,2.0,-999.0,76,0.00,,,0.00,118,Wunderground v.1.15,2013-02-26 19:12:00,
2013-02-26 11:15:00,42.9,35.9,30.32,SSE,166,5.0,-999.0,76,0.00,,,0.00,123,Wunderground v.1.15,2013-02-26 19:15:00,
2013-02-26 11:17:00,42.9,35.2,30.31,SSE,157,2.0,-999.0,74,0.00,,,0.00,141,Wunderground v.1.15,2013-02-26 19:17:00,
2013-02-26 11:20:00,43.1,35.4,30.31,SE,138,2.0,-999.0,74,0.00,,,0.00,139,Wunderground v.1.15,2013-02-26 19:20:00,
2013-02-26 11:23:00,43.1,35.4,30.31,East,81,2.0,-999.0,74,0.00,,,0.00,134,Wunderground v.1.15,2013-02-26 19:23:00,
2013-02-26 11:25:00,43.2,35.8,30.31,North,1,2.0,-999.0,75,0.00,,,0.00,141,Wunderground v.1.15,2013-02-26 19:25:00,
2013-02-26 11:28:00,43.2,35.5,30.31,SE,136,2.0,-999.0,74,0.00,,,0.00,151,Wunderground v.1.15,2013-02-26 19:28:00,
2013-02-26 11:30:00,43.2,35.5,30.31,SE,124,1.0,-999.0,74,0.00,,,0.00,151,Wunderground v.1.15,2013-02-26 19:30:00,
2013-02-26 11:31:00,43.4,35.7,30.30,SE,124,0.0,-999.0,74,0.00,,,0.00,150,Wunderground v.1.15,2013-02-26 19:31:00,
2013-02-26 11:33:00,43.4,35.7,30.30,SSE,150,2.0,-999.0,74,0.00,,,0.00,148,Wunderground v.1.15,2013-02-26 19:33:00,
2013-02-26 11:34:00,43.4,35.3,30.30,SSE,150,0.0,-999.0,73,0.00,,,0.00,148,Wunderground v.1.15,2013-02-26 19:34:00,
2013-02-26 11:35:00,43.4,35.7,30.30,SSE,150,1.0,-999.0,74,0.00,,,0.00,146,Wunderground v.1.15,2013-02-26 19:35:00,
2013-02-26 11:36:00,43.5,35.8,30.30,SSE,150,0.0,-999.0,74,0.00,,,0.00,146,Wunderground v.1.15,2013-02-26 19:36:00,
2013-02-26 11:38:00,43.5,36.1,30.30,SSE,150,1.0,-999.0,75,0.00,,,0.00,141,Wunderground v.1.15,2013-02-26 19:38:00,
2013-02-26 11:39:00,43.5,35.8,30.30,SSE,150,2.0,-999.0,74,0.00,,,0.00,139,Wunderground v.1.15,2013-02-26 19:39:00,
2013-02-26 11:40:00,43.7,36.3,30.30,SE,145,1.0,-999.0,75,0.00,,,0.00,139,Wunderground v.1.15,2013-02-26 19:40:00,
2013-02-26 11:41:00,43.7,36.3,30.30,SE,145,0.0,-999.0,75,0.00,,,0.00,141,Wunderground v.1.15,2013-02-26 19:41:00,
2013-02-26 11:44:00,43.8,36.4,30.30,SSE,149,2.0,-999.0,75,0.00,,,0.00,148,Wunderground v.1.15,2013-02-26 19:44:00,
2013-02-26 11:45:00,43.8,36.0,30.30,ESE,117,1.0,-999.0,74,0.00,,,0.00,148,Wunderground v.1.15,2013-02-26 19:45:00,
2013-02-26 11:46:00,43.8,36.0,30.30,ESE,117,0.0,-999.0,74,0.00,,,0.00,148,Wunderground v.1.15,2013-02-26 19:46:00,
2013-02-26 11:49:00,43.8,35.7,30.30,ESE,117,1.0,-999.0,73,0.00,,,0.00,151,Wunderground v.1.15,2013-02-26 19:49:00,
2013-02-26 11:50:00,43.8,36.0,30.30,ESE,117,0.0,-999.0,74,0.00,,,0.00,153,Wunderground v.1.15,2013-02-26 19:50:00,
2013-02-26 11:51:00,43.9,36.1,30.30,SSE,148,1.0,-999.0,74,0.00,,,0.00,155,Wunderground v.1.15,2013-02-26 19:51:00,
2013-02-26 11:54:00,43.9,35.8,30.30,SSE,156,2.0,-999.0,73,0.00,,,0.00,167,Wunderground v.1.15,2013-02-26 19:54:00,
2013-02-26 11:55:00,43.9,35.5,30.30,SSE,155,2.0,-999.0,72,0.00,,,0.00,171,Wunderground v.1.15,2013-02-26 19:55:00,
2013-02-26 11:56:00,43.9,35.1,30.30,SSE,155,2.0,-999.0,71,0.00,,,0.00,174,Wunderground v.1.15,2013-02-26 19:56:00,
2013-02-26 11:59:00,44.1,35.3,30.30,SSE,167,2.0,-999.0,71,0.00,,,0.00,172,Wunderground v.1.15,2013-02-26 19:59:00,
2013-02-26 12:00:00,44.1,35.3,30.30,SE,141,6.0,-999.0,71,0.00,,,0.00,167,Wunderground v.1.15,2013-02-26 20:00:00,
2013-02-26 12:01:00,44.1,35.3,30.30,SE,142,1.0,-999.0,71,0.00,,,0.00,160,Wunderground v.1.15,2013-02-26 20:01:00,
2013-02-26 12:04:00,44.2,35.7,30.30,ESE,109,0.0,-999.0,72,0.00,,,0.00,135,Wunderground v.1.15,2013-02-26 20:04:00,
2013-02-26 12:05:00,44.4,35.9,30.30,SSE,162,4.0,-999.0,72,0.00,,,0.00,135,Wunderground v.1.15,2013-02-26 20:05:00,
2013-02-26 12:06:00,44.4,35.9,30.30,East,95,2.0,-999.0,72,0.00,,,0.00,132,Wunderground v.1.15,2013-02-26 20:06:00,
2013-02-26 12:07:00,44.4,35.9,30.30,East,95,0.0,-999.0,72,0.00,,,0.00,130,Wunderground v.1.15,2013-02-26 20:07:00,
2013-02-26 12:10:00,44.4,35.2,30.30,East,85,2.0,-999.0,70,0.00,,,0.00,123,Wunderground v.1.15,2013-02-26 20:10:00,
2013-02-26 12:11:00,44.4,34.9,30.30,ENE,70,1.0,-999.0,69,0.00,,,0.00,120,Wunderground v.1.15,2013-02-26 20:11:00,
2013-02-26 12:13:00,44.4,35.2,30.30,ENE,78,2.0,-999.0,70,0.00,,,0.00,120,Wunderground v.1.15,2013-02-26 20:13:00,
2013-02-26 12:15:00,44.4,35.2,30.30,SSW,205,1.0,-999.0,70,0.00,,,0.00,118,Wunderground v.1.15,2013-02-26 20:15:00,
2013-02-26 12:17:00,44.4,35.6,30.28,ESE,114,13.0,-999.0,71,0.00,,,0.00,114,Wunderground v.1.15,2013-02-26 20:17:00,
2013-02-26 12:18:00,44.4,34.9,30.28,ESE,109,0.0,-999.0,69,0.00,,,0.00,113,Wunderground v.1.15,2013-02-26 20:18:00,
2013-02-26 12:21:00,44.4,34.9,30.28,SSE,157,1.0,-999.0,69,0.00,,,0.00,116,Wunderground v.1.15,2013-02-26 20:21:00,
2013-02-26 12:22:00,44.2,34.3,30.28,SSW,196,0.0,-999.0,68,0.00,,,0.00,121,Wunderground v.1.15,2013-02-26 20:22:00,
2013-02-26 12:24:00,44.4,35.2,30.28,SSW,196,0.0,-999.0,70,0.00,,,0.00,123,Wunderground v.1.15,2013-02-26 20:24:00,
2013-02-26 12:26:00,44.4,35.2,30.28,SE,128,2.0,-999.0,70,0.00,,,0.00,132,Wunderground v.1.15,2013-02-26 20:26:00,
2013-02-26 12:28:00,44.4,34.9,30.28,ESE,102,1.0,-999.0,69,0.00,,,0.00,134,Wunderground v.1.15,2013-02-26 20:28:00,
2013-02-26 12:29:00,44.5,35.0,30.28,SE,135,2.0,-999.0,69,0.00,,,0.00,132,Wunderground v.1.15,2013-02-26 20:29:00,
2013-02-26 12:31:00,44.5,34.6,30.28,East,101,2.0,-999.0,68,0.00,,,0.00,130,Wunderground v.1.15,2013-02-26 20:31:00,
2013-02-26 12:32:00,44.5,34.6,30.28,SE,135,3.0,-999.0,68,0.00,,,0.00,130,Wunderground v.1.15,2013-02-26 20:32:00,
2013-02-26 12:33:00,44.5,35.0,30.28,SSE,155,0.0,-999.0,69,0.00,,,0.00,130,Wunderground v.1.15,2013-02-26 20:33:00,
2013-02-26 12:34:00,44.5,34.6,30.28,North,8,3.0,-999.0,68,0.00,,,0.00,130,Wunderground v.1.15,2013-02-26 20:34:00,
2013-02-26 12:36:00,44.5,34.6,30.28,East,81,0.0,-999.0,68,0.00,,,0.00,132,Wunderground v.1.15,2013-02-26 20:36:00,
2013-02-26 12:37:00,44.5,34.6,30.28,East,81,0.0,-999.0,68,0.00,,,0.00,132,Wunderground v.1.15,2013-02-26 20:37:00,
2013-02-26 12:39:00,44.5,34.6,30.28,ESE,104,0.0,-999.0,68,0.00,,,0.00,132,Wunderground v.1.15,2013-02-26 20:39:00,
2013-02-26 12:41:00,44.5,34.6,30.28,ESE,105,2.0,-999.0,68,0.00,,,0.00,130,Wunderground v.1.15,2013-02-26 20:41:00,
2013-02-26 12:42:00,44.5,34.6,30.28,ESE,105,0.0,-999.0,68,0.00,,,0.00,130,Wunderground v.1.15,2013-02-26 20:42:00,
2013-02-26 12:44:00,44.7,34.4,30.28,East,101,0.0,-999.0,67,0.00,,,0.00,137,Wunderground v.1.15,2013-02-26 20:44:00,
2013-02-26 12:46:00,44.7,34.8,30.28,ESE,109,2.0,-999.0,68,0.00,,,0.00,141,Wunderground v.1.15,2013-02-26 20:46:00,
2013-02-26 12:48:00,44.8,35.6,30.28,East,93,1.0,-999.0,70,0.00,,,0.00,144,Wunderground v.1.15,2013-02-26 20:48:00,
2013-02-26 12:49:00,44.8,34.5,30.28,East,101,2.0,-999.0,67,0.00,,,0.00,146,Wunderground v.1.15,2013-02-26 20:49:00,
2013-02-26 12:50:00,44.8,34.5,30.28,East,101,1.0,-999.0,67,0.00,,,0.00,144,Wunderground v.1.15,2013-02-26 20:50:00,
2013-02-26 12:51:00,44.9,35.3,30.28,East,95,1.0,-999.0,69,0.00,,,0.00,144,Wunderground v.1.15,2013-02-26 20:51:00,
2013-02-26 12:54:00,44.9,35.0,30.28,SE,133,1.0,-999.0,68,0.00,,,0.00,144,Wunderground v.1.15,2013-02-26 20:54:00,
2013-02-26 12:55:00,44.9,35.0,30.28,ESE,108,2.0,-999.0,68,0.00,,,0.00,146,Wunderground v.1.15,2013-02-26 20:55:00,
2013-02-26 12:57:00,45.1,34.4,30.28,ENE,78,2.0,-999.0,66,0.00,,,0.00,155,Wunderground v.1.15,2013-02-26 20:57:00,
2013-02-26 12:59:00,45.1,34.4,30.28,ESE,122,0.0,-999.0,66,0.00,,,0.00,157,Wunderground v.1.15,2013-02-26 20:59:00,
2013-02-26 13:00:00,45.1,34.8,30.28,ESE,114,2.0,-999.0,67,0.00,,,0.00,158,Wunderground v.1.15,2013-02-26 21:00:00,
2013-02-26 13:02:00,45.4,35.1,30.27,East,83,2.0,-999.0,67,0.00,,,0.00,162,Wunderground v.1.15,2013-02-26 21:02:00,
2013-02-26 13:05:00,45.4,34.7,30.27,East,100,2.0,-999.0,66,0.00,,,0.00,158,Wunderground v.1.15,2013-02-26 21:05:00,
2013-02-26 13:08:00,45.4,33.5,30.27,ESE,102,1.0,-999.0,63,0.00,,,0.00,151,Wunderground v.1.15,2013-02-26 21:08:00,
2013-02-26 13:10:00,45.4,34.3,30.27,West,279,2.0,-999.0,65,0.00,,,0.00,143,Wunderground v.1.15,2013-02-26 21:10:00,
2013-02-26 13:11:00,45.4,33.9,30.27,South,173,1.0,-999.0,64,0.00,,,0.00,143,Wunderground v.1.15,2013-02-26 21:11:00,
2013-02-26 13:13:00,45.4,33.9,30.27,ESE,102,3.0,-999.0,64,0.00,,,0.00,141,Wunderground v.1.15,2013-02-26 21:13:00,
2013-02-26 13:15:00,45.4,34.3,30.27,SE,133,3.0,-999.0,65,0.00,,,0.00,143,Wunderground v.1.15,2013-02-26 21:15:00,
2013-02-26 13:16:00,45.4,34.3,30.27,SSE,166,2.0,-999.0,65,0.00,,,0.00,143,Wunderground v.1.15,2013-02-26 21:16:00,
2013-02-26 13:18:00,45.4,33.5,30.27,SE,138,2.0,-999.0,63,0.00,,,0.00,143,Wunderground v.1.15,2013-02-26 21:18:00,
2013-02-26 13:21:00,45.2,33.7,30.27,SE,145,1.0,-999.0,64,0.00,,,0.00,143,Wunderground v.1.15,2013-02-26 21:21:00,
2013-02-26 13:23:00,45.2,34.5,30.27,SE,145,1.0,-999.0,66,0.00,,,0.00,150,Wunderground v.1.15,2013-02-26 21:23:00,
2013-02-26 13:26:00,45.2,33.3,30.27,East,97,1.0,-999.0,63,0.00,,,0.00,153,Wunderground v.1.15,2013-02-26 21:26:00,
2013-02-26 13:27:00,45.2,33.3,30.27,East,98,1.0,-999.0,63,0.00,,,0.00,151,Wunderground v.1.15,2013-02-26 21:27:00,
2013-02-26 13:30:00,45.2,33.7,30.27,SSE,152,6.0,-999.0,64,0.00,,,0.00,141,Wunderground v.1.15,2013-02-26 21:30:00,
2013-02-26 13:31:00,45.4,34.3,30.27,WSW,253,0.0,-999.0,65,0.00,,,0.00,135,Wunderground v.1.15,2013-02-26 21:31:00,
2013-02-26 13:32:00,45.4,34.3,30.27,WSW,253,0.0,-999.0,65,0.00,,,0.00,135,Wunderground v.1.15,2013-02-26 21:32:00,
2013-02-26 13:35:00,45.4,34.3,30.27,ESE,104,3.0,-999.0,65,0.00,,,0.00,127,Wunderground v.1.15,2013-02-26 21:35:00,
2013-02-26 13:36:00,45.4,34.3,30.27,ESE,117,2.0,-999.0,65,0.00,,,0.00,123,Wunderground v.1.15,2013-02-26 21:36:00,
2013-02-26 13:37:00,45.4,33.9,30.27,East,94,2.0,-999.0,64,0.00,,,0.00,123,Wunderground v.1.15,2013-02-26 21:37:00,
2013-02-26 13:40:00,45.4,33.9,30.27,ESE,111,0.0,-999.0,64,0.00,,,0.00,114,Wunderground v.1.15,2013-02-26 21:40:00,
2013-02-26 13:41:00,45.4,34.7,30.27,SE,125,2.0,-999.0,66,0.00,,,0.00,113,Wunderground v.1.15,2013-02-26 21:41:00,
2013-02-26 13:42:00,45.4,34.7,30.27,East,98,5.0,-999.0,66,0.00,,,0.00,113,Wunderground v.1.15,2013-02-26 21:42:00,
2013-02-26 13:45:00,45.4,34.7,30.27,ESE,112,2.0,-999.0,66,0.00,,,0.00,113,Wunderground v.1.15,2013-02-26 21:45:00,
2013-02-26 13:47:00,45.2,34.5,30.26,East,94,2.0,-999.0,66,0.00,,,0.00,111,Wunderground v.1.15,2013-02-26 21:47:00,
2013-02-26 13:48:00,45.2,34.1,30.26,SE,125,1.0,-999.0,65,0.00,,,0.00,107,Wunderground v.1.15,2013-02-26 21:48:00,
2013-02-26 13:51:00,45.2,33.7,30.26,ESE,111,0.0,-999.0,64,0.00,,,0.00,102,Wunderground v.1.15,2013-02-26 21:51:00,
2013-02-26 13:52:00,45.2,34.5,30.26,ESE,111,2.0,-999.0,66,0.00,,,0.00,106,Wunderground v.1.15,2013-02-26 21:52:00,
2013-02-26 13:53:00,45.2,34.1,30.26,ESE,114,2.0,-999.0,65,0.00,,,0.00,102,Wunderground v.1.15,2013-02-26 21:53:00,
2013-02-26 13:56:00,45.2,33.7,30.26,SE,138,0.0,-999.0,64,0.00,,,0.00,95,Wunderground v.1.15,2013-02-26 21:56:00,
2013-02-26 13:57:00,45.2,33.7,30.26,South,180,3.0,-999.0,64,0.00,,,0.00,91,Wunderground v.1.15,2013-02-26 21:57:00,
2013-02-26 13:59:00,45.2,34.5,30.26,SW,214,0.0,-999.0,66,0.00,,,0.00,97,Wunderground v.1.15,2013-02-26 21:59:00,
2013-02-26 14:02:00,45.2,34.1,30.25,West,276,0.0,-999.0,65,0.00,,,0.00,104,Wunderground v.1.15,2013-02-26 22:02:00,
2013-02-26 14:04:00,45.2,34.5,30.25,ESE,107,0.0,-999.0,66,0.00,,,0.00,90,Wunderground v.1.15,2013-02-26 22:04:00,
2013-02-26 14:07:00,45.2,34.1,30.25,SE,124,0.0,-999.0,65,0.00,,,0.00,84,Wunderground v.1.15,2013-02-26 22:07:00,
2013-02-26 14:08:00,45.2,34.5,30.25,SE,124,0.0,-999.0,66,0.00,,,0.00,84,Wunderground v.1.15,2013-02-26 22:08:00,
2013-02-26 14:09:00,45.2,34.5,30.25,ESE,122,1.0,-999.0,66,0.00,,,0.00,77,Wunderground v.1.15,2013-02-26 22:09:00,
2013-02-26 14:12:00,45.2,34.5,30.25,East,81,1.0,-999.0,66,0.00,,,0.00,84,Wunderground v.1.15,2013-02-26 22:12:00,
2013-02-26 14:14:00,45.2,34.1,30.25,East,98,3.0,-999.0,65,0.00,,,0.00,84,Wunderground v.1.15,2013-02-26 22:14:00,
2013-02-26 14:17:00,45.1,34.0,30.25,South,173,1.0,-999.0,65,0.00,,,0.00,84,Wunderground v.1.15,2013-02-26 22:17:00,
2013-02-26 14:19:00,45.1,33.6,30.25,South,173,0.0,-999.0,64,0.00,,,0.00,90,Wunderground v.1.15,2013-02-26 22:19:00,
2013-02-26 14:23:00,45.1,34.4,30.25,South,170,2.0,-999.0,66,0.00,,,0.00,107,Wunderground v.1.15,2013-02-26 22:23:00,
2013-02-26 14:24:00,45.1,33.2,30.25,ESE,109,0.0,-999.0,63,0.00,,,0.00,106,Wunderground v.1.15,2013-02-26 22:24:00,
2013-02-26 14:25:00,45.1,33.2,30.25,SSE,150,0.0,-999.0,63,0.00,,,0.00,104,Wunderground v.1.15,2013-02-26 22:25:00,
2013-02-26 14:28:00,45.2,34.1,30.25,SE,142,2.0,-999.0,65,0.00,,,0.00,90,Wunderground v.1.15,2013-02-26 22:28:00,
2013-02-26 14:29:00,45.2,34.1,30.25,SE,141,2.0,-999.0,65,0.00,,,0.00,83,Wunderground v.1.15,2013-02-26 22:29:00,
2013-02-26 14:30:00,45.2,33.7,30.25,SSE,148,2.0,-999.0,64,0.00,,,0.00,79,Wunderground v.1.15,2013-02-26 22:30:00,
2013-02-26 14:33:00,45.2,32.9,30.25,SSE,163,2.0,-999.0,62,0.00,,,0.00,72,Wunderground v.1.15,2013-02-26 22:33:00,
2013-02-26 14:34:00,45.2,33.3,30.25,SE,133,0.0,-999.0,63,0.00,,,0.00,74,Wunderground v.1.15,2013-02-26 22:34:00,
2013-02-26 14:35:00,45.2,33.3,30.25,SE,133,0.0,-999.0,63,0.00,,,0.00,79,Wunderground v.1.15,2013-02-26 22:35:00,
2013-02-26 14:38:00,45.2,33.7,30.25,East,84,2.0,-999.0,64,0.00,,,0.00,88,Wunderground v.1.15,2013-02-26 22:38:00,
2013-02-26 14:39:00,45.2,34.1,30.25,East,81,0.0,-999.0,65,0.00,,,0.00,88,Wunderground v.1.15,2013-02-26 22:39:00,
2013-02-26 14:40:00,45.2,34.1,30.25,East,81,1.0,-999.0,65,0.00,,,0.00,88,Wunderground v.1.15,2013-02-26 22:40:00,
2013-02-26 14:42:00,45.2,34.1,30.25,East,81,0.0,-999.0,65,0.00,,,0.00,83,Wunderground v.1.15,2013-02-26 22:42:00,
2013-02-26 14:43:00,45.2,34.5,30.25,East,81,1.0,-999.0,66,0.00,,,0.00,81,Wunderground v.1.15,2013-02-26 22:43:00,
2013-02-26 14:45:00,45.1,33.6,30.25,SE,136,1.0,-999.0,64,0.00,,,0.00,74,Wunderground v.1.15,2013-02-26 22:45:00,
2013-02-26 14:47:00,45.2,33.7,30.25,SSE,166,3.0,-999.0,64,0.00,,,0.00,74,Wunderground v.1.15,2013-02-26 22:47:00,
2013-02-26 14:48:00,45.2,33.7,30.25,NE,56,1.0,-999.0,64,0.00,,,0.00,72,Wunderground v.1.15,2013-02-26 22:48:00,
2013-02-26 14:50:00,45.2,32.5,30.25,ESE,111,3.0,-999.0,61,0.00,,,0.00,70,Wunderground v.1.15,2013-02-26 22:50:00,
2013-02-26 14:53:00,45.2,33.7,30.25,ESE,114,0.0,-999.0,64,0.00,,,0.00,69,Wunderground v.1.15,2013-02-26 22:53:00,
2013-02-26 14:55:00,45.2,34.1,30.25,ESE,114,0.0,-999.0,65,0.00,,,0.00,67,Wunderground v.1.15,2013-02-26 22:55:00,
2013-02-26 14:59:00,45.2,33.3,30.25,ESE,114,1.0,-999.0,63,0.00,,,0.00,63,Wunderground v.1.15,2013-02-26 22:59:00,
2013-02-26 15:00:00,45.2,33.3,30.25,SE,135,2.0,-999.0,63,0.00,,,0.00,63,Wunderground v.1.15,2013-02-26 23:00:00,
2013-02-26 15:01:00,45.2,32.9,30.25,SE,135,2.0,-999.0,62,0.00,,,0.00,63,Wunderground v.1.15,2013-02-26 23:01:00,
2013-02-26 15:04:00,45.2,33.3,30.25,SSE,149,1.0,-999.0,63,0.00,,,0.00,63,Wunderground v.1.15,2013-02-26 23:04:00,
2013-02-26 15:06:00,45.2,33.3,30.25,SE,141,0.0,-999.0,63,0.00,,,0.00,65,Wunderground v.1.15,2013-02-26 23:06:00,
2013-02-26 15:09:00,45.2,34.1,30.25,SE,141,1.0,-999.0,65,0.00,,,0.00,63,Wunderground v.1.15,2013-02-26 23:09:00,
2013-02-26 15:10:00,45.2,34.1,30.25,North,352,0.0,-999.0,65,0.00,,,0.00,62,Wunderground v.1.15,2013-02-26 23:10:00,
2013-02-26 15:11:00,45.2,34.1,30.25,North,352,2.0,-999.0,65,0.00,,,0.00,56,Wunderground v.1.15,2013-02-26 23:11:00,
2013-02-26 15:14:00,45.2,34.1,30.25,ESE,107,1.0,-999.0,65,0.00,,,0.00,46,Wunderground v.1.15,2013-02-26 23:14:00,
2013-02-26 15:15:00,45.2,34.1,30.25,ESE,107,2.0,-999.0,65,0.00,,,0.00,42,Wunderground v.1.15,2013-02-26 23:15:00,
2013-02-26 15:16:00,45.1,34.0,30.25,East,83,2.0,-999.0,65,0.00,,,0.00,42,Wunderground v.1.15,2013-02-26 23:16:00,
2013-02-26 15:19:00,45.1,33.2,30.25,SSE,153,1.0,-999.0,63,0.00,,,0.00,37,Wunderground v.1.15,2013-02-26 23:19:00,
2013-02-26 15:20:00,45.1,32.8,30.25,SSE,153,1.0,-999.0,62,0.00,,,0.00,35,Wunderground v.1.15,2013-02-26 23:20:00,
2013-02-26 15:21:00,45.1,34.0,30.25,SSE,153,0.0,-999.0,65,0.00,,,0.00,35,Wunderground v.1.15,2013-02-26 23:21:00,
2013-02-26 15:24:00,45.1,33.2,30.25,SE,125,1.0,-999.0,63,0.00,,,0.00,37,Wunderground v.1.15,2013-02-26 23:24:00,
2013-02-26 15:25:00,45.1,33.2,30.25,SE,125,0.0,-999.0,63,0.00,,,0.00,37,Wunderground v.1.15,2013-02-26 23:25:00,
2013-02-26 15:26:00,44.9,33.1,30.25,SE,125,0.0,-999.0,63,0.00,,,0.00,37,Wunderground v.1.15,2013-02-26 23:26:00,
2013-02-26 15:29:00,44.9,32.7,30.25,SE,125,0.0,-999.0,62,0.00,,,0.00,33,Wunderground v.1.15,2013-02-26 23:29:00,
2013-02-26 15:30:00,44.9,32.7,30.24,SE,125,0.0,-999.0,62,0.00,,,0.00,33,Wunderground v.1.15,2013-02-26 23:30:00,
2013-02-26 15:31:00,44.9,33.1,30.24,ESE,121,1.0,-999.0,63,0.00,,,0.00,37,Wunderground v.1.15,2013-02-26 23:31:00,
2013-02-26 15:35:00,44.9,32.7,30.24,South,186,0.0,-999.0,62,0.00,,,0.00,37,Wunderground v.1.15,2013-02-26 23:35:00,
2013-02-26 15:36:00,44.9,33.1,30.24,South,186,0.0,-999.0,63,0.00,,,0.00,37,Wunderground v.1.15,2013-02-26 23:36:00,
2013-02-26 15:37:00,44.9,33.1,30.24,South,186,0.0,-999.0,63,0.00,,,0.00,37,Wunderground v.1.15,2013-02-26 23:37:00,
2013-02-26 15:40:00,44.9,32.7,30.24,East,83,0.0,-999.0,62,0.00,,,0.00,35,Wunderground v.1.15,2013-02-26 23:40:00,
2013-02-26 15:41:00,44.9,33.1,30.24,East,83,1.0,-999.0,63,0.00,,,0.00,35,Wunderground v.1.15,2013-02-26 23:41:00,
2013-02-26 15:42:00,44.9,33.1,30.24,East,83,0.0,-999.0,63,0.00,,,0.00,35,Wunderground v.1.15,2013-02-26 23:42:00,
2013-02-26 15:45:00,44.8,33.4,30.24,East,83,0.0,-999.0,64,0.00,,,0.00,28,Wunderground v.1.15,2013-02-26 23:45:00,
2013-02-26 15:46:00,44.8,33.4,30.24,East,83,0.0,-999.0,64,0.00,,,0.00,28,Wunderground v.1.15,2013-02-26 23:46:00,
2013-02-26 15:47:00,44.8,33.4,30.24,East,83,0.0,-999.0,64,0.00,,,0.00,28,Wunderground v.1.15,2013-02-26 23:47:00,
2013-02-26 15:48:00,44.8,33.4,30.24,East,83,0.0,-999.0,64,0.00,,,0.00,26,Wunderground v.1.15,2013-02-26 23:48:00,
2013-02-26 15:50:00,44.8,33.7,30.24,East,83,0.0,-999.0,65,0.00,,,0.00,26,Wunderground v.1.15,2013-02-26 23:50:00,
2013-02-26 15:52:00,44.8,33.4,30.24,East,83,1.0,-999.0,64,0.00,,,0.00,26,Wunderground v.1.15,2013-02-26 23:52:00,
2013-02-26 15:53:00,44.8,33.4,30.24,East,83,0.0,-999.0,64,0.00,,,0.00,30,Wunderground v.1.15,2013-02-26 23:53:00,
2013-02-26 15:55:00,44.7,33.3,30.24,ESE,104,1.0,-999.0,64,0.00,,,0.00,30,Wunderground v.1.15,2013-02-26 23:55:00,
2013-02-26 15:57:00,44.7,33.6,30.24,ESE,104,0.0,-999.0,65,0.00,,,0.00,28,Wunderground v.1.15,2013-02-26 23:57:00,
2013-02-26 15:58:00,44.7,33.6,30.24,ESE,104,0.0,-999.0,65,0.00,,,0.00,28,Wunderground v.1.15,2013-02-26 23:58:00,
2013-02-26 16:01:00,44.7,34.0,30.23,SE,145,0.0,-999.0,66,0.00,,,0.00,25,Wunderground v.1.15,2013-02-27 00:01:00,
2013-02-26 16:02:00,44.7,33.6,30.23,SE,145,0.0,-999.0,65,0.00,,,0.00,25,Wunderground v.1.15,2013-02-27 00:02:00,
2013-02-26 16:03:00,44.5,33.5,30.23,SE,145,0.0,-999.0,65,0.00,,,0.00,25,Wunderground v.1.15,2013-02-27 00:03:00,
2013-02-26 16:06:00,44.5,33.1,30.23,SE,141,0.0,-999.0,64,0.00,,,0.00,25,Wunderground v.1.15,2013-02-27 00:06:00,
2013-02-26 16:07:00,44.5,33.1,30.23,SE,139,0.0,-999.0,64,0.00,,,0.00,25,Wunderground v.1.15,2013-02-27 00:07:00,
2013-02-26 16:08:00,44.5,33.1,30.23,SE,139,2.0,-999.0,64,0.00,,,0.00,25,Wunderground v.1.15,2013-02-27 00:08:00,
2013-02-26 16:11:00,44.5,33.1,30.23,SE,139,0.0,-999.0,64,0.00,,,0.00,25,Wunderground v.1.15,2013-02-27 00:11:00,
2013-02-26 16:12:00,44.5,33.5,30.23,SE,139,0.0,-999.0,65,0.00,,,0.00,25,Wunderground v.1.15,2013-02-27 00:12:00,
2013-02-26 16:13:00,44.5,33.1,30.23,SE,139,0.0,-999.0,64,0.00,,,0.00,25,Wunderground v.1.15,2013-02-27 00:13:00,
2013-02-26 16:14:00,44.5,33.1,30.23,SE,139,0.0,-999.0,64,0.00,,,0.00,25,Wunderground v.1.15,2013-02-27 00:14:00,
2013-02-26 16:16:00,44.5,33.8,30.23,South,172,0.0,-999.0,66,0.00,,,0.00,25,Wunderground v.1.15,2013-02-27 00:16:00,
2013-02-26 16:18:00,44.5,33.5,30.23,South,172,0.0,-999.0,65,0.00,,,0.00,23,Wunderground v.1.15,2013-02-27 00:18:00,
2013-02-26 16:19:00,44.5,33.5,30.23,SSE,149,2.0,-999.0,65,0.00,,,0.00,23,Wunderground v.1.15,2013-02-27 00:19:00,
2013-02-26 16:21:00,44.4,33.4,30.23,East,90,0.0,-999.0,65,0.00,,,0.00,23,Wunderground v.1.15,2013-02-27 00:21:00,
2013-02-26 16:23:00,44.4,33.7,30.23,East,90,0.0,-999.0,66,0.00,,,0.00,23,Wunderground v.1.15,2013-02-27 00:23:00,
2013-02-26 16:24:00,44.4,33.7,30.23,East,88,0.0,-999.0,66,0.00,,,0.00,23,Wunderground v.1.15,2013-02-27 00:24:00,
2013-02-26 16:27:00,44.4,33.7,30.23,SSE,155,1.0,-999.0,66,0.00,,,0.00,18,Wunderground v.1.15,2013-02-27 00:27:00,
2013-02-26 16:28:00,44.4,33.7,30.23,SE,143,1.0,-999.0,66,0.00,,,0.00,18,Wunderground v.1.15,2013-02-27 00:28:00,
2013-02-26 16:29:00,44.4,33.7,30.23,SE,143,1.0,-999.0,66,0.00,,,0.00,18,Wunderground v.1.15,2013-02-27 00:29:00,
2013-02-26 16:32:00,44.4,33.4,30.23,SE,143,1.0,-999.0,65,0.00,,,0.00,14,Wunderground v.1.15,2013-02-27 00:32:00,
2013-02-26 16:33:00,44.4,33.4,30.23,SE,143,1.0,-999.0,65,0.00,,,0.00,14,Wunderground v.1.15,2013-02-27 00:33:00,
2013-02-26 16:34:00,44.2,33.2,30.23,South,172,1.0,-999.0,65,0.00,,,0.00,11,Wunderground v.1.15,2013-02-27 00:34:00,
2013-02-26 16:37:00,44.2,33.2,30.23,South,170,1.0,-999.0,65,0.00,,,0.00,11,Wunderground v.1.15,2013-02-27 00:37:00,
2013-02-26 16:38:00,44.2,33.2,30.23,ENE,69,2.0,-999.0,65,0.00,,,0.00,9,Wunderground v.1.15,2013-02-27 00:38:00,
2013-02-26 16:39:00,44.2,32.8,30.23,ENE,69,1.0,-999.0,64,0.00,,,0.00,9,Wunderground v.1.15,2013-02-27 00:39:00,
2013-02-26 16:42:00,44.2,33.6,30.23,ENE,69,0.0,-999.0,66,0.00,,,0.00,9,Wunderground v.1.15,2013-02-27 00:42:00,
2013-02-26 16:43:00,44.2,33.6,30.23,ENE,69,0.0,-999.0,66,0.00,,,0.00,7,Wunderground v.1.15,2013-02-27 00:43:00,
2013-02-26 16:45:00,44.2,33.6,30.23,ENE,69,1.0,-999.0,66,0.00,,,0.00,7,Wunderground v.1.15,2013-02-27 00:45:00,
2013-02-26 16:46:00,44.2,33.6,30.22,ENE,69,0.0,-999.0,66,0.00,,,0.00,7,Wunderground v.1.15,2013-02-27 00:46:00,
2013-02-26 16:47:00,44.2,33.6,30.22,ENE,69,0.0,-999.0,66,0.00,,,0.00,5,Wunderground v.1.15,2013-02-27 00:47:00,
2013-02-26 16:49:00,44.1,32.7,30.22,SSE,149,1.0,-999.0,64,0.00,,,0.00,5,Wunderground v.1.15,2013-02-27 00:49:00,
2013-02-26 16:51:00,44.1,33.1,30.22,SSE,149,1.0,-999.0,65,0.00,,,0.00,5,Wunderground v.1.15,2013-02-27 00:51:00,
2013-02-26 16:52:00,44.1,33.5,30.22,South,172,1.0,-999.0,66,0.00,,,0.00,5,Wunderground v.1.15,2013-02-27 00:52:00,
2013-02-26 16:54:00,44.1,33.5,30.22,SE,132,0.0,-999.0,66,0.00,,,0.00,5,Wunderground v.1.15,2013-02-27 00:54:00,
2013-02-26 16:56:00,44.1,33.5,30.22,East,95,0.0,-999.0,66,0.00,,,0.00,5,Wunderground v.1.15,2013-02-27 00:56:00,
2013-02-26 16:58:00,44.1,33.5,30.22,East,95,0.0,-999.0,66,0.00,,,0.00,5,Wunderground v.1.15,2013-02-27 00:58:00,
2013-02-26 16:59:00,44.1,33.5,30.22,SSW,196,1.0,-999.0,66,0.00,,,0.00,5,Wunderground v.1.15,2013-02-27 00:59:00,
2013-02-26 17:01:00,44.1,33.5,30.22,SSE,167,0.0,-999.0,66,0.00,,,0.00,5,Wunderground v.1.15,2013-02-27 01:01:00,
2013-02-26 17:04:00,44.1,33.5,30.22,East,93,3.0,-999.0,66,0.00,,,0.00,0,Wunderground v.1.15,2013-02-27 01:04:00,
2013-02-26 17:06:00,44.1,33.5,30.22,ESE,105,1.0,-999.0,66,0.00,,,0.00,0,Wunderground v.1.15,2013-02-27 01:06:00,
2013-02-26 17:09:00,44.1,32.7,30.22,South,176,0.0,-999.0,64,0.00,,,0.00,0,Wunderground v.1.15,2013-02-27 01:09:00,
2013-02-26 17:11:00,44.1,32.7,30.22,SE,129,1.0,-999.0,64,0.00,,,0.00,0,Wunderground v.1.15,2013-02-27 01:11:00,
2013-02-26 17:14:00,44.1,33.1,30.22,SE,129,0.0,-999.0,65,0.00,,,0.00,0,Wunderground v.1.15,2013-02-27 01:14:00,
2013-02-26 17:16:00,44.1,33.5,30.21,SE,129,0.0,-999.0,66,0.00,,,0.00,0,Wunderground v.1.15,2013-02-27 01:16:00,
2013-02-26 17:19:00,44.1,33.5,30.21,SE,131,1.0,-999.0,66,0.00,,,0.00,0,Wunderground v.1.15,2013-02-27 01:19:00,
2013-02-26 17:21:00,43.9,32.9,30.21,SE,131,1.0,-999.0,65,0.00,,,0.00,0,Wunderground v.1.15,2013-02-27 01:21:00,
2013-02-26 17:22:00,43.9,32.9,30.21,SE,131,0.0,-999.0,65,0.00,,,0.00,0,Wunderground v.1.15,2013-02-27 01:22:00,
2013-02-26 17:24:00,43.9,33.3,30.21,SE,131,1.0,-999.0,66,0.00,,,0.00,0,Wunderground v.1.15,2013-02-27 01:24:00,
2013-02-26 17:25:00,43.9,33.3,30.21,SE,131,1.0,-999.0,66,0.00,,,0.00,0,Wunderground v.1.15,2013-02-27 01:25:00,
2013-02-26 17:26:00,43.9,32.9,30.21,SE,131,1.0,-999.0,65,0.00,,,0.00,0,Wunderground v.1.15,2013-02-27 01:26:00,
2013-02-26 17:27:00,43.9,33.3,30.21,SE,131,0.0,-999.0,66,0.00,,,0.00,0,Wunderground v.1.15,2013-02-27 01:27:00,
2013-02-26 17:29:00,43.9,33.3,30.21,ESE,115,0.0,-999.0,66,0.00,,,0.00,0,Wunderground v.1.15,2013-02-27 01:29:00,
2013-02-26 17:30:00,43.9,33.3,30.21,ESE,115,1.0,-999.0,66,0.00,,,0.00,0,Wunderground v.1.15,2013-02-27 01:30:00,
2013-02-26 17:31:00,43.9,33.3,30.21,South,177,1.0,-999.0,66,0.00,,,0.00,0,Wunderground v.1.15,2013-02-27 01:31:00,
2013-02-26 17:32:00,43.9,33.3,30.21,South,177,0.0,-999.0,66,0.00,,,0.00,0,Wunderground v.1.15,2013-02-27 01:32:00,
2013-02-26 17:35:00,43.8,33.2,30.21,South,177,1.0,-999.0,66,0.00,,,0.00,0,Wunderground v.1.15,2013-02-27 01:35:00,
2013-02-26 17:37:00,43.8,33.2,30.21,South,177,0.0,-999.0,66,0.00,,,0.00,0,Wunderground v.1.15,2013-02-27 01:37:00,
2013-02-26 17:40:00,43.8,33.2,30.21,SSE,149,1.0,-999.0,66,0.00,,,0.00,0,Wunderground v.1.15,2013-02-27 01:40:00,
2013-02-26 17:42:00,43.8,33.6,30.21,SW,235,0.0,-999.0,67,0.00,,,0.00,0,Wunderground v.1.15,2013-02-27 01:42:00,
2013-02-26 17:43:00,43.8,33.6,30.21,SW,235,1.0,-999.0,67,0.00,,,0.00,0,Wunderground v.1.15,2013-02-27 01:43:00,
2013-02-26 17:45:00,43.8,33.6,30.21,SSE,153,0.0,-999.0,67,0.00,,,0.00,0,Wunderground v.1.15,2013-02-27 01:45:00,
2013-02-26 17:48:00,43.8,33.6,30.21,SE,143,1.0,-999.0,67,0.00,,,0.00,0,Wunderground v.1.15,2013-02-27 01:48:00,
2013-02-26 17:50:00,43.8,33.6,30.21,ESE,111,1.0,-999.0,67,0.00,,,0.00,0,Wunderground v.1.15,2013-02-27 01:50:00,
2013-02-26 17:52:00,43.7,33.1,30.21,SE,145,1.0,-999.0,66,0.00,,,0.00,0,Wunderground v.1.15,2013-02-27 01:52:00,
2013-02-26 17:53:00,43.8,33.6,30.21,SE,145,1.0,-999.0,67,0.00,,,0.00,0,Wunderground v.1.15,2013-02-27 01:53:00,
2013-02-26 17:56:00,43.7,33.5,30.21,SSE,165,2.0,-999.0,67,0.00,,,0.00,0,Wunderground v.1.15,2013-02-27 01:56:00,
2013-02-26 17:58:00,43.7,33.5,30.21,SSE,165,0.0,-999.0,67,0.00,,,0.00,0,Wunderground v.1.15,2013-02-27 01:58:00,
2013-02-26 17:59:00,43.7,33.5,30.21,SSE,153,2.0,-999.0,67,0.00,,,0.00,0,Wunderground v.1.15,2013-02-27 01:59:00,
2013-02-26 18:01:00,43.7,33.5,30.21,SSE,150,1.0,-999.0,67,0.00,,,0.00,0,Wunderground v.1.15,2013-02-27 02:01:00,
2013-02-26 18:03:00,43.7,33.5,30.21,SSE,150,0.0,-999.0,67,0.00,,,0.00,0,Wunderground v.1.15,2013-02-27 02:03:00,
2013-02-26 18:05:00,43.7,33.5,30.21,SE,132,0.0,-999.0,67,0.00,,,0.00,0,Wunderground v.1.15,2013-02-27 02:05:00,
2013-02-26 18:07:00,43.7,33.8,30.21,SE,132,2.0,-999.0,68,0.00,,,0.00,0,Wunderground v.1.15,2013-02-27 02:07:00,
2013-02-26 18:08:00,43.7,33.8,30.21,SE,131,0.0,-999.0,68,0.00,,,0.00,0,Wunderground v.1.15,2013-02-27 02:08:00,
2013-02-26 18:10:00,43.7,33.5,30.21,SE,131,1.0,-999.0,67,0.00,,,0.00,0,Wunderground v.1.15,2013-02-27 02:10:00,
2013-02-26 18:12:00,43.5,33.3,30.21,SE,131,1.0,-999.0,67,0.00,,,0.00,0,Wunderground v.1.15,2013-02-27 02:12:00,
2013-02-26 18:14:00,43.5,33.6,30.21,SE,141,1.0,-999.0,68,0.00,,,0.00,0,Wunderground v.1.15,2013-02-27 02:14:00,
2013-02-26 18:15:00,43.5,33.6,30.21,SE,141,0.0,-999.0,68,0.00,,,0.00,0,Wunderground v.1.15,2013-02-27 02:15:00,
2013-02-26 18:18:00,43.5,33.3,30.21,SE,133,0.0,-999.0,67,0.00,,,0.00,0,Wunderground v.1.15,2013-02-27 02:18:00,
2013-02-26 18:19:00,43.5,33.3,30.21,SE,142,1.0,-999.0,67,0.00,,,0.00,0,Wunderground v.1.15,2013-02-27 02:19:00,
2013-02-26 18:20:00,43.5,33.3,30.21,SE,142,0.0,-999.0,67,0.00,,,0.00,0,Wunderground v.1.15,2013-02-27 02:20:00,
2013-02-26 18:22:00,43.5,33.3,30.21,SE,146,0.0,-999.0,67,0.00,,,0.00,0,Wunderground v.1.15,2013-02-27 02:22:00,
2013-02-26 18:23:00,43.5,33.6,30.21,SSE,149,0.0,-999.0,68,0.00,,,0.00,0,Wunderground v.1.15,2013-02-27 02:23:00,
2013-02-26 18:24:00,43.5,33.3,30.21,SSE,149,0.0,-999.0,67,0.00,,,0.00,0,Wunderground v.1.15,2013-02-27 02:24:00,
2013-02-26 18:28:00,43.5,33.3,30.21,SE,133,0.0,-999.0,67,0.00,,,0.00,0,Wunderground v.1.15,2013-02-27 02:28:00,
2013-02-26 18:30:00,43.5,33.6,30.21,SE,133,0.0,-999.0,68,0.00,,,0.00,0,Wunderground v.1.15,2013-02-27 02:30:00,
2013-02-26 18:33:00,43.5,33.3,30.21,SE,133,0.0,-999.0,67,0.00,,,0.00,0,Wunderground v.1.15,2013-02-27 02:33:00,
2013-02-26 18:34:00,43.5,33.3,30.21,SE,133,0.0,-999.0,67,0.00,,,0.00,0,Wunderground v.1.15,2013-02-27 02:34:00,
2013-02-26 18:35:00,43.5,32.9,30.21,SE,133,0.0,-999.0,66,0.00,,,0.00,0,Wunderground v.1.15,2013-02-27 02:35:00,
2013-02-26 18:39:00,43.5,33.3,30.21,SE,125,0.0,-999.0,67,0.00,,,0.00,0,Wunderground v.1.15,2013-02-27 02:39:00,
2013-02-26 18:40:00,43.5,33.3,30.21,SE,125,1.0,-999.0,67,0.00,,,0.00,0,Wunderground v.1.15,2013-02-27 02:40:00,
2013-02-26 18:44:00,43.4,33.2,30.21,SSE,157,1.0,-999.0,67,0.00,,,0.00,0,Wunderground v.1.15,2013-02-27 02:44:00,
2013-02-26 18:45:00,43.4,33.2,30.21,SSE,167,0.0,-999.0,67,0.00,,,0.00,0,Wunderground v.1.15,2013-02-27 02:45:00,
2013-02-26 18:46:00,43.4,33.2,30.21,SSE,167,0.0,-999.0,67,0.00,,,0.00,0,Wunderground v.1.15,2013-02-27 02:46:00,
2013-02-26 18:49:00,43.4,33.2,30.21,SE,146,0.0,-999.0,67,0.00,,,0.00,0,Wunderground v.1.15,2013-02-27 02:49:00,
2013-02-26 18:50:00,43.4,33.2,30.21,SE,146,0.0,-999.0,67,0.00,,,0.00,0,Wunderground v.1.15,2013-02-27 02:50:00,
2013-02-26 18:51:00,43.4,33.2,30.21,South,191,0.0,-999.0,67,0.00,,,0.00,0,Wunderground v.1.15,2013-02-27 02:51:00,
2013-02-26 18:55:00,43.4,33.5,30.21,SE,131,2.0,-999.0,68,0.00,,,0.00,0,Wunderground v.1.15,2013-02-27 02:55:00,
2013-02-26 18:56:00,43.4,33.2,30.21,SE,138,1.0,-999.0,67,0.00,,,0.00,0,Wunderground v.1.15,2013-02-27 02:56:00,
2013-02-26 19:00:00,43.4,33.2,30.21,SE,141,0.0,-999.0,67,0.00,,,0.00,0,Wunderground v.1.15,2013-02-27 03:00:00,
2013-02-26 19:01:00,43.4,33.2,30.20,SE,141,1.0,-999.0,67,0.00,,,0.00,0,Wunderground v.1.15,2013-02-27 03:01:00,
2013-02-26 19:05:00,43.2,33.3,30.20,SSE,153,1.0,-999.0,68,0.00,,,0.00,0,Wunderground v.1.15,2013-02-27 03:05:00,
2013-02-26 19:06:00,43.2,33.0,30.20,SE,145,2.0,-999.0,67,0.00,,,0.00,0,Wunderground v.1.15,2013-02-27 03:06:00,
2013-02-26 19:07:00,43.2,33.0,30.20,ESE,115,3.0,-999.0,67,0.00,,,0.00,0,Wunderground v.1.15,2013-02-27 03:07:00,
2013-02-26 19:10:00,43.4,33.5,30.20,SE,145,0.0,-999.0,68,0.00,,,0.00,0,Wunderground v.1.15,2013-02-27 03:10:00,
2013-02-26 19:11:00,43.4,33.5,30.20,North,9,6.0,-999.0,68,0.00,,,0.00,0,Wunderground v.1.15,2013-02-27 03:11:00,
2013-02-26 19:12:00,43.2,33.3,30.20,SE,145,1.0,-999.0,68,0.00,,,0.00,0,Wunderground v.1.15,2013-02-27 03:12:00,
2013-02-26 19:15:00,43.4,33.2,30.20,SE,131,2.0,-999.0,67,0.00,,,0.00,0,Wunderground v.1.15,2013-02-27 03:15:00,
2013-02-26 19:16:00,43.4,33.2,30.20,SE,132,1.0,-999.0,67,0.00,,,0.00,0,Wunderground v.1.15,2013-02-27 03:16:00,
2013-02-26 19:17:00,43.4,33.2,30.20,SE,132,2.0,-999.0,67,0.00,,,0.00,0,Wunderground v.1.15,2013-02-27 03:17:00,
2013-02-26 19:20:00,43.5,33.3,30.20,SE,141,3.0,-999.0,67,0.00,,,0.00,0,Wunderground v.1.15,2013-02-27 03:20:00,
2013-02-26 19:22:00,43.5,33.6,30.20,SE,131,1.0,-999.0,68,0.00,,,0.00,0,Wunderground v.1.15,2013-02-27 03:22:00,
2013-02-26 19:23:00,43.5,33.3,30.20,SE,146,1.0,-999.0,67,0.00,,,0.00,0,Wunderground v.1.15,2013-02-27 03:23:00,
2013-02-26 19:25:00,43.5,33.6,30.20,SE,146,1.0,-999.0,68,0.00,,,0.00,0,Wunderground v.1.15,2013-02-27 03:25:00,
2013-02-26 19:27:00,43.5,33.6,30.20,SE,136,3.0,-999.0,68,0.00,,,0.00,0,Wunderground v.1.15,2013-02-27 03:27:00,
2013-02-26 19:28:00,43.5,33.6,30.20,NE,42,0.0,-999.0,68,0.00,,,0.00,0,Wunderground v.1.15,2013-02-27 03:28:00,
2013-02-26 19:31:00,43.5,33.6,30.20,South,191,3.0,-999.0,68,0.00,,,0.00,0,Wunderground v.1.15,2013-02-27 03:31:00,
2013-02-26 19:32:00,43.5,34.0,30.20,SE,145,1.0,-999.0,69,0.00,,,0.00,0,Wunderground v.1.15,2013-02-27 03:32:00,
2013-02-26 19:33:00,43.4,33.9,30.20,SSE,157,2.0,-999.0,69,0.00,,,0.00,0,Wunderground v.1.15,2013-02-27 03:33:00,
2013-02-26 19:36:00,43.4,34.3,30.20,SSE,156,3.0,-999.0,70,0.00,,,0.00,0,Wunderground v.1.15,2013-02-27 03:36:00,
2013-02-26 19:37:00,43.4,34.3,30.20,South,173,1.0,-999.0,70,0.00,,,0.00,0,Wunderground v.1.15,2013-02-27 03:37:00,
2013-02-26 19:39:00,43.2,34.4,30.20,ESE,115,2.0,-999.0,71,0.00,,,0.00,0,Wunderground v.1.15,2013-02-27 03:39:00,
2013-02-26 19:41:00,43.2,34.4,30.20,ESE,118,0.0,-999.0,71,0.00,,,0.00,0,Wunderground v.1.15,2013-02-27 03:41:00,
2013-02-26 19:42:00,43.2,34.4,30.20,ESE,118,0.0,-999.0,71,0.00,,,0.00,0,Wunderground v.1.15,2013-02-27 03:42:00,
2013-02-26 19:43:00,43.2,34.4,30.20,ESE,118,0.0,-999.0,71,0.00,,,0.00,0,Wunderground v.1.15,2013-02-27 03:43:00,
2013-02-26 19:44:00,43.1,34.7,30.20,ESE,118,1.0,-999.0,72,0.00,,,0.00,0,Wunderground v.1.15,2013-02-27 03:44:00,
2013-02-26 19:46:00,43.1,34.7,30.20,ESE,118,0.0,-999.0,72,0.00,,,0.00,0,Wunderground v.1.15,2013-02-27 03:46:00,
2013-02-26 19:47:00,42.9,34.5,30.20,ESE,118,1.0,-999.0,72,0.00,,,0.00,0,Wunderground v.1.15,2013-02-27 03:47:00,
2013-02-26 19:48:00,42.9,34.5,30.20,ESE,118,0.0,-999.0,72,0.00,,,0.00,0,Wunderground v.1.15,2013-02-27 03:48:00,
2013-02-26 19:49:00,42.9,34.5,30.20,ESE,118,0.0,-999.0,72,0.00,,,0.00,0,Wunderground v.1.15,2013-02-27 03:49:00,
2013-02-26 19:51:00,42.9,34.5,30.20,South,181,4.0,-999.0,72,0.00,,,0.00,0,Wunderground v.1.15,2013-02-27 03:51:00,
2013-02-26 19:52:00,42.9,34.8,30.20,South,181,0.0,-999.0,73,0.00,,,0.00,0,Wunderground v.1.15,2013-02-27 03:52:00,
2013-02-26 19:53:00,42.9,34.8,30.20,South,181,0.0,-999.0,73,0.00,,,0.00,0,Wunderground v.1.15,2013-02-27 03:53:00,
2013-02-26 19:56:00,42.8,34.7,30.20,SSE,148,0.0,-999.0,73,0.00,,,0.00,0,Wunderground v.1.15,2013-02-27 03:56:00,
2013-02-26 19:57:00,42.8,34.4,30.20,SSE,148,0.0,-999.0,72,0.00,,,0.00,0,Wunderground v.1.15,2013-02-27 03:57:00,
2013-02-26 19:58:00,42.8,34.0,30.20,SSE,148,0.0,-999.0,71,0.00,,,0.00,0,Wunderground v.1.15,2013-02-27 03:58:00,
2013-02-26 20:01:00,42.8,34.4,30.20,WSW,248,0.0,-999.0,72,0.00,,,0.00,0,Wunderground v.1.15,2013-02-27 04:01:00,
2013-02-26 20:02:00,42.8,34.0,30.20,WSW,248,0.0,-999.0,71,0.00,,,0.00,0,Wunderground v.1.15,2013-02-27 04:02:00,
2013-02-26 20:03:00,42.8,34.4,30.20,WSW,248,0.0,-999.0,72,0.00,,,0.00,0,Wunderground v.1.15,2013-02-27 04:03:00,
2013-02-26 20:06:00,42.8,34.0,30.20,SW,229,0.0,-999.0,71,0.00,,,0.00,0,Wunderground v.1.15,2013-02-27 04:06:00,
2013-02-26 20:07:00,42.8,33.7,30.20,SSE,148,2.0,-999.0,70,0.00,,,0.00,0,Wunderground v.1.15,2013-02-27 04:07:00,
2013-02-26 20:08:00,42.8,33.7,30.20,SE,138,0.0,-999.0,70,0.00,,,0.00,0,Wunderground v.1.15,2013-02-27 04:08:00,
2013-02-26 20:11:00,42.9,33.4,30.20,ESE,117,10.0,-999.0,69,0.00,,,0.00,0,Wunderground v.1.15,2013-02-27 04:11:00,
2013-02-26 20:12:00,42.9,33.8,30.20,East,84,0.0,-999.0,70,0.00,,,0.00,0,Wunderground v.1.15,2013-02-27 04:12:00,
2013-02-26 20:13:00,42.9,33.8,30.20,SSE,155,1.0,-999.0,70,0.00,,,0.00,0,Wunderground v.1.15,2013-02-27 04:13:00,
2013-02-26 20:16:00,42.9,34.1,30.20,SSE,155,0.0,-999.0,71,0.00,,,0.00,0,Wunderground v.1.15,2013-02-27 04:16:00,
2013-02-26 20:18:00,42.9,33.8,30.20,SSE,156,2.0,-999.0,70,0.00,,,0.00,0,Wunderground v.1.15,2013-02-27 04:18:00,
2013-02-26 20:21:00,42.9,33.4,30.20,SSE,156,1.0,-999.0,69,0.00,,,0.00,0,Wunderground v.1.15,2013-02-27 04:21:00,
2013-02-26 20:23:00,42.9,33.4,30.20,South,184,2.0,-999.0,69,0.00,,,0.00,0,Wunderground v.1.15,2013-02-27 04:23:00,
2013-02-26 20:27:00,43.1,33.6,30.20,SE,124,1.0,-999.0,69,0.00,,,0.00,0,Wunderground v.1.15,2013-02-27 04:27:00,
2013-02-26 20:28:00,43.1,33.6,30.20,SE,125,2.0,-999.0,69,0.00,,,0.00,0,Wunderground v.1.15,2013-02-27 04:28:00,
2013-02-26 20:29:00,43.1,33.6,30.20,SE,125,0.0,-999.0,69,0.00,,,0.00,0,Wunderground v.1.15,2013-02-27 04:29:00,
2013-02-26 20:32:00,43.1,32.9,30.15,SSE,153,0.0,-999.0,67,0.00,,,0.00,0,Wunderground v.1.15,2013-02-27 04:32:00,
2013-02-26 20:33:00,43.2,33.0,30.15,SSE,153,1.0,-999.0,67,0.00,,,0.00,0,Wunderground v.1.15,2013-02-27 04:33:00,
2013-02-26 20:34:00,43.2,33.0,30.15,SSE,153,0.0,-999.0,67,0.00,,,0.00,0,Wunderground v.1.15,2013-02-27 04:34:00,
2013-02-26 20:38:00,43.2,33.0,30.15,SSE,153,0.0,-999.0,67,0.00,,,0.00,0,Wunderground v.1.15,2013-02-27 04:38:00,
2013-02-26 20:39:00,43.2,33.3,30.15,SSE,153,1.0,-999.0,68,0.00,,,0.00,0,Wunderground v.1.15,2013-02-27 04:39:00,
2013-02-26 20:43:00,43.2,33.7,30.15,SE,126,0.0,-999.0,69,0.00,,,0.00,0,Wunderground v.1.15,2013-02-27 04:43:00,
2013-02-26 20:44:00,43.2,33.7,30.15,SE,126,1.0,-999.0,69,0.00,,,0.00,0,Wunderground v.1.15,2013-02-27 04:44:00,
2013-02-26 20:48:00,43.2,33.3,30.20,SSE,150,0.0,-999.0,68,0.00,,,0.00,0,Wunderground v.1.15,2013-02-27 04:48:00,
2013-02-26 20:49:00,43.2,33.3,30.20,SSE,152,1.0,-999.0,68,0.00,,,0.00,0,Wunderground v.1.15,2013-02-27 04:49:00,
2013-02-26 20:53:00,43.2,33.0,30.20,East,90,0.0,-999.0,67,0.00,,,0.00,0,Wunderground v.1.15,2013-02-27 04:53:00,
2013-02-26 20:54:00,43.2,33.7,30.20,SE,124,1.0,-999.0,69,0.00,,,0.00,0,Wunderground v.1.15,2013-02-27 04:54:00,
2013-02-26 20:58:00,43.2,33.7,30.20,ESE,111,0.0,-999.0,69,0.00,,,0.00,0,Wunderground v.1.15,2013-02-27 04:58:00,
2013-02-26 21:00:00,43.2,34.1,30.20,ESE,121,0.0,-999.0,70,0.00,,,0.00,0,Wunderground v.1.15,2013-02-27 05:00:00,
2013-02-26 21:01:00,43.2,34.1,30.20,ESE,122,0.0,-999.0,70,0.00,,,0.00,0,Wunderground v.1.15,2013-02-27 05:01:00,
2013-02-26 21:05:00,43.2,34.4,30.20,SSW,197,2.0,-999.0,71,0.00,,,0.00,0,Wunderground v.1.15,2013-02-27 05:05:00,
2013-02-26 21:06:00,43.1,34.3,30.20,ESE,112,1.0,-999.0,71,0.00,,,0.00,0,Wunderground v.1.15,2013-02-27 05:06:00,
2013-02-26 21:10:00,43.1,34.0,30.20,SE,131,2.0,-999.0,70,0.00,,,0.00,0,Wunderground v.1.15,2013-02-27 05:10:00,
2013-02-26 21:11:00,43.1,34.3,30.20,SSE,149,2.0,-999.0,71,0.00,,,0.00,0,Wunderground v.1.15,2013-02-27 05:11:00,
2013-02-26 21:12:00,43.1,34.3,30.20,SSE,149,0.0,-999.0,71,0.00,,,0.00,0,Wunderground v.1.15,2013-02-27 05:12:00,
2013-02-26 21:15:00,43.1,34.3,30.20,ESE,121,0.0,-999.0,71,0.00,,,0.00,0,Wunderground v.1.15,2013-02-27 05:15:00,
2013-02-26 21:16:00,43.1,34.3,30.20,ESE,121,0.0,-999.0,71,0.00,,,0.00,0,Wunderground v.1.15,2013-02-27 05:16:00,
2013-02-26 21:17:00,42.9,34.5,30.20,ESE,115,5.0,-999.0,72,0.00,,,0.00,0,Wunderground v.1.15,2013-02-27 05:17:00,
2013-02-26 21:20:00,42.9,34.1,30.20,WSW,246,0.0,-999.0,71,0.00,,,0.00,0,Wunderground v.1.15,2013-02-27 05:20:00,
2013-02-26 21:21:00,42.9,34.5,30.20,WSW,246,1.0,-999.0,72,0.00,,,0.00,0,Wunderground v.1.15,2013-02-27 05:21:00,
2013-02-26 21:22:00,42.9,34.1,30.20,SW,235,0.0,-999.0,71,0.00,,,0.00,0,Wunderground v.1.15,2013-02-27 05:22:00,
2013-02-26 21:23:00,42.9,34.1,30.20,East,91,2.0,-999.0,71,0.00,,,0.00,0,Wunderground v.1.15,2013-02-27 05:23:00,
2013-02-26 21:26:00,42.9,34.1,30.20,ESE,122,0.0,-999.0,71,0.00,,,0.00,0,Wunderground v.1.15,2013-02-27 05:26:00,
2013-02-26 21:27:00,42.9,34.1,30.20,ESE,122,2.0,-999.0,71,0.00,,,0.00,0,Wunderground v.1.15,2013-02-27 05:27:00,
2013-02-26 21:28:00,42.9,34.1,30.20,West,259,2.0,-999.0,71,0.00,,,0.00,0,Wunderground v.1.15,2013-02-27 05:28:00,
2013-02-26 21:31:00,42.9,34.1,30.19,SE,139,2.0,-999.0,71,0.00,,,0.00,0,Wunderground v.1.15,2013-02-27 05:31:00,
2013-02-26 21:32:00,42.9,34.1,30.19,SE,139,1.0,-999.0,71,0.00,,,0.00,0,Wunderground v.1.15,2013-02-27 05:32:00,
2013-02-26 21:34:00,42.8,34.0,30.19,SSE,162,0.0,-999.0,71,0.00,,,0.00,0,Wunderground v.1.15,2013-02-27 05:34:00,
2013-02-26 21:37:00,42.8,34.0,30.19,SE,131,1.0,-999.0,71,0.00,,,0.00,0,Wunderground v.1.15,2013-02-27 05:37:00,
2013-02-26 21:39:00,42.8,34.0,30.19,SE,133,1.0,-999.0,71,0.00,,,0.00,0,Wunderground v.1.15,2013-02-27 05:39:00,
2013-02-26 21:42:00,42.7,33.9,30.19,SSE,166,1.0,-999.0,71,0.00,,,0.00,0,Wunderground v.1.15,2013-02-27 05:42:00,
2013-02-26 21:43:00,42.7,33.9,30.19,SSE,166,2.0,-999.0,71,0.00,,,0.00,0,Wunderground v.1.15,2013-02-27 05:43:00,
2013-02-26 21:44:00,42.5,33.8,30.19,ESE,121,1.0,-999.0,71,0.00,,,0.00,0,Wunderground v.1.15,2013-02-27 05:44:00,
2013-02-26 21:47:00,42.5,34.1,30.19,ESE,112,2.0,-999.0,72,0.00,,,0.00,0,Wunderground v.1.15,2013-02-27 05:47:00,
2013-02-26 21:48:00,42.5,34.1,30.19,ESE,105,1.0,-999.0,72,0.00,,,0.00,0,Wunderground v.1.15,2013-02-27 05:48:00,
2013-02-26 21:50:00,42.5,34.1,30.19,ESE,104,0.0,-999.0,72,0.00,,,0.00,0,Wunderground v.1.15,2013-02-27 05:50:00,
2013-02-26 21:53:00,42.5,33.8,30.19,ESE,104,0.0,-999.0,71,0.00,,,0.00,0,Wunderground v.1.15,2013-02-27 05:53:00,
2013-02-26 21:55:00,42.5,34.1,30.19,ESE,105,0.0,-999.0,72,0.00,,,0.00,0,Wunderground v.1.15,2013-02-27 05:55:00,
2013-02-26 21:58:00,42.4,34.4,30.19,ESE,105,0.0,-999.0,73,0.00,,,0.00,0,Wunderground v.1.15,2013-02-27 05:58:00,
2013-02-26 21:59:00,42.4,34.0,30.19,ESE,122,2.0,-999.0,72,0.00,,,0.00,0,Wunderground v.1.15,2013-02-27 05:59:00,
2013-02-26 22:01:00,42.4,34.0,30.19,SE,124,0.0,-999.0,72,0.00,,,0.00,0,Wunderground v.1.15,2013-02-27 06:01:00,
2013-02-26 22:04:00,42.2,34.2,30.19,SE,138,0.0,-999.0,73,0.00,,,0.00,0,Wunderground v.1.15,2013-02-27 06:04:00,
2013-02-26 22:06:00,42.2,33.8,30.19,SE,136,1.0,-999.0,72,0.00,,,0.00,0,Wunderground v.1.15,2013-02-27 06:06:00,
2013-02-26 22:09:00,42.4,34.0,30.19,SE,124,1.0,-999.0,72,0.00,,,0.00,0,Wunderground v.1.15,2013-02-27 06:09:00,
2013-02-26 22:12:00,42.4,33.7,30.19,ESE,115,0.0,-999.0,71,0.00,,,0.00,0,Wunderground v.1.15,2013-02-27 06:12:00,
2013-02-26 22:14:00,42.4,34.0,30.19,ESE,122,1.0,-999.0,72,0.00,,,0.00,0,Wunderground v.1.15,2013-02-27 06:14:00,
2013-02-26 22:15:00,42.4,34.0,30.19,ESE,122,1.0,-999.0,72,0.00,,,0.00,0,Wunderground v.1.15,2013-02-27 06:15:00,
2013-02-26 22:17:00,42.4,34.0,30.19,SSE,156,7.0,-999.0,72,0.00,,,0.00,0,Wunderground v.1.15,2013-02-27 06:17:00,
2013-02-26 22:19:00,42.4,33.7,30.19,SE,146,0.0,-999.0,71,0.00,,,0.00,0,Wunderground v.1.15,2013-02-27 06:19:00,
2013-02-26 22:20:00,42.4,33.7,30.19,South,173,0.0,-999.0,71,0.00,,,0.00,0,Wunderground v.1.15,2013-02-27 06:20:00,
2013-02-26 22:22:00,42.4,34.0,30.19,SSE,156,3.0,-999.0,72,0.00,,,0.00,0,Wunderground v.1.15,2013-02-27 06:22:00,
2013-02-26 22:24:00,42.4,33.7,30.19,South,173,0.0,-999.0,71,0.00,,,0.00,0,Wunderground v.1.15,2013-02-27 06:24:00,
2013-02-26 22:25:00,42.4,33.7,30.19,East,98,1.0,-999.0,71,0.00,,,0.00,0,Wunderground v.1.15,2013-02-27 06:25:00,
2013-02-26 22:27:00,42.4,34.0,30.19,SSE,157,2.0,-999.0,72,0.00,,,0.00,0,Wunderground v.1.15,2013-02-27 06:27:00,
2013-02-26 22:29:00,42.2,34.2,30.19,SE,128,0.0,-999.0,73,0.00,,,0.00,0,Wunderground v.1.15,2013-02-27 06:29:00,
2013-02-26 22:30:00,42.2,34.2,30.19,SE,128,0.0,-999.0,73,0.00,,,0.00,0,Wunderground v.1.15,2013-02-27 06:30:00,
2013-02-26 22:32:00,42.2,34.2,30.19,East,94,1.0,-999.0,73,0.00,,,0.00,0,Wunderground v.1.15,2013-02-27 06:32:00,
2013-02-26 22:35:00,42.2,34.5,30.19,SSE,162,0.0,-999.0,74,0.00,,,0.00,0,Wunderground v.1.15,2013-02-27 06:35:00,
2013-02-26 22:38:00,42.1,34.7,30.19,SE,128,0.0,-999.0,75,0.00,,,0.00,0,Wunderground v.1.15,2013-02-27 06:38:00,
2013-02-26 22:40:00,42.1,34.7,30.19,SE,128,0.0,-999.0,75,0.00,,,0.00,0,Wunderground v.1.15,2013-02-27 06:40:00,
2013-02-26 22:41:00,42.1,34.7,30.19,SE,128,0.0,-999.0,75,0.00,,,0.00,0,Wunderground v.1.15,2013-02-27 06:41:00,
2013-02-26 22:43:00,42.1,34.7,30.19,SE,146,0.0,-999.0,75,0.00,,,0.00,0,Wunderground v.1.15,2013-02-27 06:43:00,
2013-02-26 22:45:00,42.1,34.7,30.19,ESE,105,4.0,-999.0,75,0.00,,,0.00,0,Wunderground v.1.15,2013-02-27 06:45:00,
2013-02-26 22:46:00,42.1,35.1,30.19,SSE,152,2.0,-999.0,76,0.00,,,0.00,0,Wunderground v.1.15,2013-02-27 06:46:00,
2013-02-26 22:48:00,42.1,35.1,30.19,ESE,117,0.0,-999.0,76,0.00,,,0.00,0,Wunderground v.1.15,2013-02-27 06:48:00,
2013-02-26 22:50:00,42.2,35.2,30.19,SE,135,1.0,-999.0,76,0.00,,,0.00,0,Wunderground v.1.15,2013-02-27 06:50:00,
2013-02-26 22:51:00,42.2,35.2,30.19,SE,135,2.0,-999.0,76,0.00,,,0.00,0,Wunderground v.1.15,2013-02-27 06:51:00,
2013-02-26 22:53:00,42.1,35.4,30.19,SE,139,0.0,-999.0,77,0.00,,,0.00,0,Wunderground v.1.15,2013-02-27 06:53:00,
2013-02-26 22:56:00,42.1,35.4,30.19,SE,139,1.0,-999.0,77,0.00,,,0.00,0,Wunderground v.1.15,2013-02-27 06:56:00,
2013-02-26 22:59:00,42.1,35.4,30.19,SE,136,2.0,-999.0,77,0.00,,,0.00,0,Wunderground v.1.15,2013-02-27 06:59:00,
2013-02-26 23:01:00,42.1,35.4,30.19,East,100,3.0,-999.0,77,0.00,,,0.00,0,Wunderground v.1.15,2013-02-27 07:01:00,
2013-02-26 23:04:00,42.1,35.4,30.19,SSE,149,1.0,-999.0,77,0.00,,,0.00,0,Wunderground v.1.15,2013-02-27 07:04:00,
2013-02-26 23:06:00,42.1,35.4,30.19,SE,133,4.0,-999.0,77,0.00,,,0.00,0,Wunderground v.1.15,2013-02-27 07:06:00,
2013-02-26 23:07:00,42.1,35.7,30.19,SE,133,1.0,-999.0,78,0.00,,,0.00,0,Wunderground v.1.15,2013-02-27 07:07:00,
2013-02-26 23:09:00,42.1,35.4,30.19,SE,142,2.0,-999.0,77,0.00,,,0.00,0,Wunderground v.1.15,2013-02-27 07:09:00,
2013-02-26 23:11:00,42.1,35.7,30.19,ESE,109,0.0,-999.0,78,0.00,,,0.00,0,Wunderground v.1.15,2013-02-27 07:11:00,
2013-02-26 23:12:00,42.1,35.7,30.19,ESE,109,0.0,-999.0,78,0.00,,,0.00,0,Wunderground v.1.15,2013-02-27 07:12:00,
2013-02-26 23:15:00,41.9,35.5,30.19,ESE,109,0.0,-999.0,78,0.00,,,0.00,0,Wunderground v.1.15,2013-02-27 07:15:00,
2013-02-26 23:16:00,41.9,35.9,30.19,ESE,109,0.0,-999.0,79,0.00,,,0.00,0,Wunderground v.1.15,2013-02-27 07:16:00,
2013-02-26 23:17:00,41.9,35.9,30.19,ESE,109,1.0,-999.0,79,0.00,,,0.00,0,Wunderground v.1.15,2013-02-27 07:17:00,
2013-02-26 23:20:00,41.8,36.1,30.19,ESE,111,1.0,-999.0,80,0.00,,,0.00,0,Wunderground v.1.15,2013-02-27 07:20:00,
2013-02-26 23:21:00,41.8,36.4,30.19,ESE,104,1.0,-999.0,81,0.00,,,0.00,0,Wunderground v.1.15,2013-02-27 07:21:00,
2013-02-26 23:22:00,41.8,36.4,30.19,SSW,196,1.0,-999.0,81,0.00,,,0.00,0,Wunderground v.1.15,2013-02-27 07:22:00,
2013-02-26 23:23:00,41.7,36.3,30.19,SSE,149,2.0,-999.0,81,0.00,,,0.00,0,Wunderground v.1.15,2013-02-27 07:23:00,
2013-02-26 23:25:00,41.5,36.4,30.19,SSE,149,0.0,-999.0,82,0.00,,,0.00,0,Wunderground v.1.15,2013-02-27 07:25:00,
2013-02-26 23:26:00,41.5,36.4,30.19,ESE,119,2.0,-999.0,82,0.00,,,0.00,0,Wunderground v.1.15,2013-02-27 07:26:00,
2013-02-26 23:27:00,41.5,36.4,30.19,South,172,2.0,-999.0,82,0.00,,,0.00,0,Wunderground v.1.15,2013-02-27 07:27:00,
2013-02-26 23:28:00,41.4,36.6,30.19,South,172,1.0,-999.0,83,0.00,,,0.00,0,Wunderground v.1.15,2013-02-27 07:28:00,
2013-02-26 23:31:00,41.2,36.4,30.19,ESE,109,0.0,-999.0,83,0.00,,,0.00,0,Wunderground v.1.15,2013-02-27 07:31:00,
2013-02-26 23:32:00,41.2,36.7,30.19,SE,129,2.0,-999.0,84,0.00,,,0.00,0,Wunderground v.1.15,2013-02-27 07:32:00,
2013-02-26 23:33:00,41.2,36.7,30.19,SE,129,0.0,-999.0,84,0.00,,,0.00,0,Wunderground v.1.15,2013-02-27 07:33:00,
2013-02-26 23:34:00,41.1,36.6,30.19,SE,142,2.0,-999.0,84,0.00,,,0.00,0,Wunderground v.1.15,2013-02-27 07:34:00,
2013-02-26 23:36:00,41.1,36.6,30.19,NE,54,1.0,-999.0,84,0.00,,,0.00,0,Wunderground v.1.15,2013-02-27 07:36:00,
2013-02-26 23:37:00,40.9,36.4,30.19,ESE,108,2.0,-999.0,84,0.00,,,0.00,0,Wunderground v.1.15,2013-02-27 07:37:00,
2013-02-26 23:38:00,40.9,36.4,30.19,SE,142,3.0,-999.0,84,0.00,,,0.00,0,Wunderground v.1.15,2013-02-27 07:38:00,
2013-02-26 23:39:00,40.9,36.4,30.19,South,179,0.0,-999.0,84,0.00,,,0.00,0,Wunderground v.1.15,2013-02-27 07:39:00,
2013-02-26 23:42:00,40.8,36.3,30.19,South,179,0.0,-999.0,84,0.00,,,0.00,0,Wunderground v.1.15,2013-02-27 07:42:00,
2013-02-26 23:43:00,40.8,36.3,30.19,South,177,0.0,-999.0,84,0.00,,,0.00,0,Wunderground v.1.15,2013-02-27 07:43:00,
2013-02-26 23:45:00,40.7,36.2,30.19,East,94,1.0,-999.0,84,0.00,,,0.00,0,Wunderground v.1.15,2013-02-27 07:45:00,
2013-02-26 23:47:00,40.7,36.2,30.19,SE,136,0.0,-999.0,84,0.00,,,0.00,0,Wunderground v.1.15,2013-02-27 07:47:00,
2013-02-26 23:48:00,40.7,36.2,30.19,SE,136,0.0,-999.0,84,0.00,,,0.00,0,Wunderground v.1.15,2013-02-27 07:48:00,
2013-02-26 23:50:00,40.7,36.2,30.19,ENE,74,1.0,-999.0,84,0.00,,,0.00,0,Wunderground v.1.15,2013-02-27 07:50:00,
2013-02-26 23:52:00,40.7,36.5,30.19,ENE,69,0.0,-999.0,85,0.00,,,0.00,0,Wunderground v.1.15,2013-02-27 07:52:00,
2013-02-26 23:53:00,40.7,36.5,30.19,ENE,69,0.0,-999.0,85,0.00,,,0.00,0,Wunderground v.1.15,2013-02-27 07:53:00,
2013-02-26 23:55:00,40.5,36.3,30.19,ENE,69,0.0,-999.0,85,0.00,,,0.00,0,Wunderground v.1.15,2013-02-27 07:55:00,
2013-02-26 23:57:00,40.5,36.3,30.19,SSE,148,2.0,-999.0,85,0.00,,,0.00,0,Wunderground v.1.15,2013-02-27 07:57:00,
2013-02-26 23:58:00,40.5,36.3,30.19,SE,146,0.0,-999.0,85,0.00,,,0.00,0,Wunderground v.1.15,2013-02-27 07:58:00,